| time (UTC) | temp F | wind direction | speed knots | gust knots | rain 1hr in | rain 24hr in | rain mn in | humidity % | barometer mb |
| 20260505174113 | 58 | 259 | 7.0 | 18.2 | 0.08 | 0.08 | 0.08 | 80 | 1008.4 |
| 20260505174012 | 58 | 269 | 6.1 | 18.2 | 0.06 | 0.06 | 0.06 | 79 | 1008.4 |
| 20260505173911 | 58 | 256 | 6.1 | 18.2 | 0.03 | 0.03 | 0.04 | 78 | 1008.5 |
| 20260505173809 | 59 | 246 | 7.8 | 18.2 | 0.02 | 0.02 | 0.02 | 77 | 1008.4 |
| 20260505173708 | 59 | 238 | 8.7 | 18.2 | 0.02 | 0.02 | 0.02 | 77 | 1008.4 |
| 20260505173611 | 60 | 250 | 10.4 | 18.2 | 0.00 | 0.00 | 0.01 | 76 | 1008.4 |
| 20260505173509 | 60 | 249 | 7.8 | 18.2 | 0.00 | 0.00 | 0.00 | 74 | 1008.4 |
| 20260505173409 | 61 | 222 | 6.1 | 18.2 | 0.00 | 0.00 | 0.00 | 72 | 1008.5 |
| 20260505173308 | 61 | 178 | 6.1 | 17.4 | 0.00 | 0.00 | 0.00 | 71 | 1008.3 |
| 20260505173227 | 61 | 216 | 6.1 | 17.4 | 0.00 | 0.00 | 0.00 | 70 | 1008.4 |
| 20260505173149 | 62 | 280 | 7.8 | 17.4 | 0.00 | 0.00 | 0.00 | 68 | 1008.2 |
| 20260505173010 | 62 | 223 | 9.6 | 17.4 | 0.00 | 0.00 | 0.00 | 66 | 1008.2 |
| 20260505172935 | 62 | 216 | 12.2 | 17.4 | 0.00 | 0.00 | 0.00 | 65 | 1008.3 |
| 20260505172902 | 62 | 216 | 13.0 | 17.4 | 0.00 | 0.00 | 0.00 | 65 | 1008.4 |
| 20260505172659 | 63 | 250 | 10.4 | 17.4 | 0.00 | 0.00 | 0.00 | 65 | 1008.3 |
| 20260505172558 | 63 | 232 | 7.0 | 17.4 | 0.00 | 0.00 | 0.00 | 66 | 1008.2 |
| 20260505172507 | 63 | 216 | 2.6 | 11.3 | 0.00 | 0.00 | 0.00 | 68 | 1008.4 |
| 20260505172434 | 63 | 233 | 0.9 | 4.3 | 0.00 | 0.00 | 0.00 | 67 | 1007.9 |
| 20260505172359 | 63 | 291 | 0.0 | 3.5 | 0.00 | 0.00 | 0.00 | 67 | 1007.6 |
| 20260505172154 | 63 | 323 | 0.0 | 3.5 | 0.00 | 0.00 | 0.00 | 67 | 1007.4 |
| 20260505172048 | 63 | 322 | 0.9 | 5.2 | 0.00 | 0.00 | 0.00 | 67 | 1007.2 |
| 20260505171947 | 63 | 320 | 0.9 | 5.2 | 0.00 | 0.00 | 0.00 | 67 | 1007.2 |
| 20260505171843 | 63 | 320 | 0.9 | 5.2 | 0.00 | 0.00 | 0.00 | 67 | 1007.1 |
| 20260505171742 | 63 | 324 | 0.0 | 5.2 | 0.00 | 0.00 | 0.00 | 67 | 1007.2 |
| 20260505171643 | 63 | 326 | 0.9 | 5.2 | 0.00 | 0.00 | 0.00 | 67 | 1007.1 |
| 20260505171536 | 63 | 326 | 0.9 | 6.1 | 0.00 | 0.00 | 0.00 | 67 | 1007.0 |
| 20260505171432 | 63 | 324 | 0.0 | 6.1 | 0.00 | 0.00 | 0.00 | 67 | 1007.0 |
| 20260505171333 | 63 | 324 | 0.0 | 6.1 | 0.00 | 0.00 | 0.00 | 67 | 1007.1 |
| 20260505171229 | 63 | 324 | 0.9 | 6.1 | 0.00 | 0.00 | 0.00 | 67 | 1007.1 |
| 20260505171131 | 64 | 324 | 0.9 | 6.1 | 0.00 | 0.00 | 0.00 | 67 | 1007.0 |
| 20260505171024 | 64 | 330 | 0.9 | 6.1 | 0.00 | 0.00 | 0.00 | 67 | 1007.1 |
| 20260505170921 | 64 | 344 | 0.9 | 6.1 | 0.00 | 0.00 | 0.00 | 67 | 1007.0 |
| 20260505170820 | 64 | 1 | 1.7 | 6.1 | 0.00 | 0.00 | 0.00 | 67 | 1007.0 |
| 20260505170719 | 64 | 324 | 3.5 | 6.1 | 0.00 | 0.00 | 0.00 | 67 | 1007.1 |
| 20260505170618 | 64 | 329 | 2.6 | 6.1 | 0.00 | 0.00 | 0.00 | 67 | 1007.0 |
| 20260505170516 | 64 | 322 | 0.9 | 6.1 | 0.00 | 0.00 | 0.00 | 67 | 1007.0 |
| 20260505170417 | 64 | 328 | 0.9 | 4.3 | 0.00 | 0.00 | 0.00 | 67 | 1007.0 |
| 20260505170315 | 64 | 328 | 0.9 | 4.3 | 0.00 | 0.00 | 0.00 | 67 | 1007.0 |
| 20260505170215 | 64 | 12 | 0.9 | 5.2 | 0.00 | 0.00 | 0.00 | 67 | 1007.0 |
| 20260505170114 | 64 | 329 | 0.0 | 5.2 | 0.00 | 0.00 | 0.00 | 67 | 1007.0 |
| 20260505170013 | 64 | 329 | 0.9 | 5.2 | 0.00 | 0.00 | 0.00 | 66 | 1006.9 |
| 20260505165911 | 64 | 329 | 0.0 | 5.2 | 0.00 | 0.00 | 0.00 | 67 | 1007.0 |
| 20260505165811 | 64 | 28 | 0.0 | 5.2 | 0.00 | 0.00 | 0.00 | 67 | 1006.9 |
| 20260505165708 | 64 | 31 | 0.0 | 5.2 | 0.00 | 0.00 | 0.00 | 67 | 1006.9 |
| 20260505165607 | 64 | 31 | 1.7 | 5.2 | 0.00 | 0.00 | 0.00 | 66 | 1007.0 |
| 20260505165505 | 64 | 31 | 1.7 | 5.2 | 0.00 | 0.00 | 0.00 | 66 | 1006.9 |
| 20260505165432 | 64 | 27 | 1.7 | 5.2 | 0.00 | 0.00 | 0.00 | 66 | 1007.0 |
| 20260505165358 | 64 | 31 | 1.7 | 5.2 | 0.00 | 0.00 | 0.00 | 66 | 1007.0 |
| 20260505165201 | 64 | 26 | 1.7 | 5.2 | 0.00 | 0.00 | 0.00 | 66 | 1007.0 |
| 20260505165100 | 64 | 17 | 0.9 | 5.2 | 0.00 | 0.00 | 0.00 | 66 | 1007.0 |
| 20260505164959 | 64 | 0 | 1.7 | 5.2 | 0.00 | 0.00 | 0.00 | 66 | 1007.0 |
| 20260505164857 | 64 | 345 | 2.6 | 5.2 | 0.00 | 0.00 | 0.00 | 66 | 1007.1 |
| 20260505164756 | 64 | 17 | 1.7 | 5.2 | 0.00 | 0.00 | 0.00 | 66 | 1007.0 |
| 20260505164653 | 64 | 27 | 0.9 | 5.2 | 0.00 | 0.00 | 0.00 | 66 | 1007.0 |
| 20260505164552 | 64 | 26 | 1.7 | 5.2 | 0.00 | 0.00 | 0.00 | 66 | 1007.1 |
| 20260505164447 | 64 | 24 | 2.6 | 7.0 | 0.00 | 0.00 | 0.00 | 66 | 1007.1 |
| 20260505164346 | 64 | 24 | 1.7 | 7.0 | 0.00 | 0.00 | 0.00 | 67 | 1007.0 |
| 20260505164251 | 64 | 35 | 1.7 | 7.0 | 0.00 | 0.00 | 0.00 | 67 | 1007.1 |
| 20260505164147 | 64 | 31 | 1.7 | 7.0 | 0.00 | 0.00 | 0.00 | 67 | 1007.1 |
| 20260505164046 | 64 | 53 | 1.7 | 7.0 | 0.00 | 0.00 | 0.00 | 68 | 1007.1 |
| 20260505163946 | 64 | 39 | 2.6 | 7.0 | 0.00 | 0.00 | 0.00 | 67 | 1007.1 |
| 20260505163845 | 64 | 45 | 2.6 | 7.0 | 0.00 | 0.00 | 0.00 | 67 | 1007.1 |
| 20260505163644 | 64 | 16 | 2.6 | 7.0 | 0.00 | 0.00 | 0.00 | 68 | 1007.2 |
| 20260505163540 | 64 | 32 | 2.6 | 7.0 | 0.00 | 0.00 | 0.00 | 67 | 1007.1 |
| 20260505163437 | 64 | 322 | 1.7 | 7.8 | 0.00 | 0.00 | 0.00 | 68 | 1007.1 |
| 20260505163334 | 64 | 34 | 0.9 | 7.8 | 0.00 | 0.00 | 0.00 | 68 | 1007.1 |
| 20260505163238 | 64 | 20 | 0.0 | 7.8 | 0.00 | 0.00 | 0.00 | 68 | 1007.2 |
| 20260505163141 | 64 | 20 | 1.7 | 7.8 | 0.00 | 0.00 | 0.00 | 68 | 1007.1 |
| 20260505163035 | 65 | 18 | 1.7 | 7.8 | 0.00 | 0.00 | 0.00 | 67 | 1007.1 |
| 20260505162933 | 65 | 29 | 0.9 | 7.8 | 0.00 | 0.00 | 0.00 | 67 | 1007.1 |
| 20260505162831 | 65 | 39 | 2.6 | 7.8 | 0.00 | 0.00 | 0.00 | 67 | 1007.2 |
| 20260505162730 | 65 | 40 | 3.5 | 7.8 | 0.00 | 0.00 | 0.00 | 66 | 1007.2 |
| 20260505162630 | 65 | 33 | 4.3 | 7.8 | 0.00 | 0.00 | 0.00 | 67 | 1007.2 |
| 20260505162536 | 65 | 15 | 4.3 | 7.8 | 0.00 | 0.00 | 0.00 | 67 | 1007.2 |
| 20260505162427 | 65 | 5 | 3.5 | 7.8 | 0.00 | 0.00 | 0.00 | 66 | 1007.3 |
| 20260505162326 | 65 | 350 | 3.5 | 7.8 | 0.00 | 0.00 | 0.00 | 66 | 1007.3 |
| 20260505162224 | 65 | 353 | 4.3 | 9.6 | 0.00 | 0.00 | 0.00 | 66 | 1007.3 |
| 20260505162123 | 65 | 25 | 1.7 | 9.6 | 0.00 | 0.00 | 0.00 | 67 | 1007.3 |
| 20260505162022 | 65 | 36 | 1.7 | 11.3 | 0.00 | 0.00 | 0.00 | 66 | 1007.2 |
| 20260505161921 | 65 | 13 | 2.6 | 11.3 | 0.00 | 0.00 | 0.00 | 67 | 1007.3 |
| 20260505161820 | 65 | 40 | 4.3 | 11.3 | 0.00 | 0.00 | 0.00 | 66 | 1007.3 |
| 20260505161714 | 65 | 24 | 4.3 | 11.3 | 0.00 | 0.00 | 0.00 | 66 | 1007.3 |
| 20260505161616 | 65 | 4 | 3.5 | 11.3 | 0.00 | 0.00 | 0.00 | 66 | 1007.3 |
| 20260505161523 | 65 | 43 | 3.5 | 11.3 | 0.00 | 0.00 | 0.00 | 66 | 1007.3 |
| 20260505161414 | 65 | 45 | 4.3 | 12.2 | 0.00 | 0.00 | 0.00 | 66 | 1007.3 |
| 20260505161313 | 65 | 35 | 5.2 | 12.2 | 0.00 | 0.00 | 0.00 | 66 | 1007.3 |
| 20260505161208 | 65 | 22 | 5.2 | 12.2 | 0.00 | 0.00 | 0.00 | 66 | 1007.4 |
| 20260505161110 | 65 | 43 | 5.2 | 12.2 | 0.00 | 0.00 | 0.00 | 66 | 1007.4 |
| 20260505161009 | 65 | 14 | 4.3 | 12.2 | 0.00 | 0.00 | 0.00 | 66 | 1007.4 |
| 20260505160935 | 65 | 46 | 4.3 | 12.2 | 0.00 | 0.00 | 0.00 | 66 | 1007.4 |
| 20260505160854 | 65 | 14 | 5.2 | 12.2 | 0.00 | 0.00 | 0.00 | 67 | 1007.4 |
| 20260505160706 | 65 | 61 | 6.1 | 12.2 | 0.00 | 0.00 | 0.00 | 66 | 1007.3 |
| 20260505160604 | 65 | 28 | 6.1 | 12.2 | 0.00 | 0.00 | 0.00 | 66 | 1007.3 |
| 20260505160505 | 66 | 60 | 4.3 | 12.2 | 0.00 | 0.00 | 0.00 | 66 | 1007.3 |
| 20260505160424 | 66 | 74 | 4.3 | 10.4 | 0.00 | 0.00 | 0.00 | 66 | 1007.4 |
| 20260505160351 | 66 | 52 | 5.2 | 10.4 | 0.00 | 0.00 | 0.00 | 66 | 1007.4 |
| 20260505160159 | 66 | 20 | 5.2 | 10.4 | 0.00 | 0.00 | 0.00 | 66 | 1007.4 |
| 20260505160106 | 66 | 14 | 3.5 | 10.4 | 0.00 | 0.00 | 0.00 | 66 | 1007.3 |
| 20260505153312 | 66 | 46 | 1.7 | 7.0 | 0.00 | 0.00 | 0.00 | 67 | 1007.6 |
| 20260505153211 | 66 | 12 | 2.6 | 7.0 | 0.00 | 0.00 | 0.00 | 67 | 1007.6 |
| 20260505153106 | 66 | 348 | 1.7 | 7.0 | 0.00 | 0.00 | 0.00 | 67 | 1007.6 |
| 20260505153007 | 66 | 359 | 2.6 | 6.1 | 0.00 | 0.00 | 0.00 | 67 | 1007.6 |
| 20260505152906 | 66 | 70 | 1.7 | 6.1 | 0.00 | 0.00 | 0.00 | 67 | 1007.7 |
| 20260505152806 | 66 | 29 | 2.6 | 7.0 | 0.00 | 0.00 | 0.00 | 67 | 1007.6 |
| 20260505152701 | 66 | 10 | 3.5 | 7.0 | 0.00 | 0.00 | 0.00 | 67 | 1007.7 |
| 20260505152559 | 66 | 28 | 3.5 | 7.0 | 0.00 | 0.00 | 0.00 | 67 | 1007.6 |
| 20260505152459 | 66 | 58 | 2.6 | 7.0 | 0.00 | 0.00 | 0.00 | 67 | 1007.6 |
| 20260505152357 | 66 | 37 | 2.6 | 7.0 | 0.00 | 0.00 | 0.00 | 67 | 1007.7 |
| 20260505152256 | 66 | 40 | 2.6 | 8.7 | 0.00 | 0.00 | 0.00 | 68 | 1007.7 |
| 20260505152154 | 66 | 26 | 2.6 | 8.7 | 0.00 | 0.00 | 0.00 | 68 | 1007.7 |
| 20260505152052 | 66 | 32 | 3.5 | 8.7 | 0.00 | 0.00 | 0.00 | 68 | 1007.7 |
| 20260505152000 | 65 | 53 | 2.6 | 8.7 | 0.00 | 0.00 | 0.00 | 68 | 1007.8 |
| 20260505151927 | 65 | 24 | 1.7 | 8.7 | 0.00 | 0.00 | 0.00 | 68 | 1007.7 |
| 20260505151839 | 65 | 42 | 2.6 | 8.7 | 0.00 | 0.00 | 0.00 | 68 | 1007.8 |
| 20260505151655 | 65 | 51 | 3.5 | 8.7 | 0.00 | 0.00 | 0.00 | 68 | 1007.7 |
| 20260505151554 | 65 | 47 | 5.2 | 8.7 | 0.00 | 0.00 | 0.00 | 68 | 1007.8 |
| 20260505151444 | 65 | 29 | 3.5 | 8.7 | 0.00 | 0.00 | 0.00 | 68 | 1007.8 |
| 20260505151340 | 65 | 28 | 0.9 | 8.7 | 0.00 | 0.00 | 0.00 | 68 | 1007.8 |
| 20260505151237 | 65 | 6 | 2.6 | 8.7 | 0.00 | 0.00 | 0.00 | 68 | 1007.8 |
| 20260505151140 | 65 | 326 | 2.6 | 8.7 | 0.00 | 0.00 | 0.00 | 68 | 1007.8 |
| 20260505151038 | 65 | 13 | 0.9 | 9.6 | 0.00 | 0.00 | 0.00 | 68 | 1007.7 |
| 20260505150938 | 65 | 333 | 1.7 | 9.6 | 0.00 | 0.00 | 0.00 | 67 | 1007.8 |
| 20260505150835 | 65 | 335 | 1.7 | 12.2 | 0.00 | 0.00 | 0.00 | 67 | 1007.8 |
| 20260505150734 | 65 | 26 | 2.6 | 12.2 | 0.00 | 0.00 | 0.00 | 67 | 1007.8 |
| 20260505150635 | 65 | 8 | 3.5 | 12.2 | 0.00 | 0.00 | 0.00 | 67 | 1007.8 |
| 20260505150531 | 66 | 29 | 2.6 | 12.2 | 0.00 | 0.00 | 0.00 | 67 | 1007.8 |
| 20260505150441 | 66 | 35 | 3.5 | 12.2 | 0.00 | 0.00 | 0.00 | 67 | 1007.8 |
| 20260505150410 | 66 | 32 | 4.3 | 12.2 | 0.00 | 0.00 | 0.00 | 66 | 1007.8 |
| 20260505150329 | 66 | 18 | 3.5 | 12.2 | 0.00 | 0.00 | 0.00 | 66 | 1007.8 |
| 20260505150128 | 66 | 45 | 5.2 | 12.2 | 0.00 | 0.00 | 0.00 | 65 | 1007.8 |
| 20260505140611 | 67 | 319 | 3.5 | 9.6 | 0.00 | 0.00 | 0.00 | 61 | 1008.0 |
| 20260505140509 | 67 | 330 | 2.6 | 9.6 | 0.00 | 0.00 | 0.00 | 62 | 1008.0 |
| 20260505140408 | 67 | 313 | 2.6 | 8.7 | 0.00 | 0.00 | 0.00 | 62 | 1008.1 |
| 20260505140307 | 67 | 29 | 2.6 | 8.7 | 0.00 | 0.00 | 0.00 | 62 | 1008.0 |
| 20260505140209 | 67 | 336 | 1.7 | 10.4 | 0.00 | 0.00 | 0.00 | 62 | 1008.0 |
| 20260505140106 | 67 | 334 | 1.7 | 10.4 | 0.00 | 0.00 | 0.00 | 62 | 1008.0 |
| 20260505130239 | 68 | 315 | 3.5 | 10.4 | 0.00 | 0.00 | 0.00 | 58 | 1008.5 |
| 20260505130145 | 68 | 14 | 2.6 | 10.4 | 0.00 | 0.00 | 0.00 | 58 | 1008.4 |
| 20260505125022 | 69 | 331 | 3.5 | 13.0 | 0.00 | 0.00 | 0.00 | 57 | 1008.4 |
| 20260505124921 | 69 | 333 | 5.2 | 13.0 | 0.00 | 0.00 | 0.00 | 57 | 1008.5 |
| 20260505124820 | 69 | 328 | 6.1 | 13.0 | 0.00 | 0.00 | 0.00 | 57 | 1008.5 |
| 20260505124718 | 69 | 318 | 3.5 | 9.6 | 0.00 | 0.00 | 0.00 | 58 | 1008.5 |
| 20260505124617 | 69 | 11 | 3.5 | 7.8 | 0.00 | 0.00 | 0.00 | 58 | 1008.5 |
| 20260505124513 | 70 | 43 | 3.5 | 9.6 | 0.00 | 0.00 | 0.00 | 57 | 1008.5 |
| 20260505124412 | 70 | 346 | 2.6 | 9.6 | 0.00 | 0.00 | 0.00 | 57 | 1008.5 |
| 20260505124312 | 71 | 335 | 2.6 | 9.6 | 0.00 | 0.00 | 0.00 | 58 | 1008.4 |
| 20260505124210 | 71 | 6 | 2.6 | 9.6 | 0.00 | 0.00 | 0.00 | 58 | 1008.4 |
| 20260505124108 | 70 | 322 | 1.7 | 9.6 | 0.00 | 0.00 | 0.00 | 57 | 1008.4 |
| 20260505124009 | 70 | 331 | 1.7 | 9.6 | 0.00 | 0.00 | 0.00 | 59 | 1008.5 |
| 20260505123908 | 70 | 327 | 1.7 | 9.6 | 0.00 | 0.00 | 0.00 | 58 | 1008.5 |
| 20260505123806 | 70 | 318 | 3.5 | 10.4 | 0.00 | 0.00 | 0.00 | 58 | 1008.4 |
| 20260505123706 | 70 | 326 | 2.6 | 10.4 | 0.00 | 0.00 | 0.00 | 58 | 1008.4 |
| 20260505123603 | 69 | 356 | 3.5 | 10.4 | 0.00 | 0.00 | 0.00 | 57 | 1008.5 |
| 20260505123503 | 69 | 337 | 3.5 | 10.4 | 0.00 | 0.00 | 0.00 | 58 | 1008.5 |
| 20260505123401 | 69 | 340 | 4.3 | 10.4 | 0.00 | 0.00 | 0.00 | 58 | 1008.5 |
| 20260505123309 | 68 | 334 | 3.5 | 10.4 | 0.00 | 0.00 | 0.00 | 58 | 1008.5 |
| 20260505123158 | 68 | 319 | 3.5 | 10.4 | 0.00 | 0.00 | 0.00 | 58 | 1008.5 |
| 20260505123058 | 68 | 324 | 4.3 | 10.4 | 0.00 | 0.00 | 0.00 | 57 | 1008.5 |
| 20260505122957 | 68 | 315 | 5.2 | 10.4 | 0.00 | 0.00 | 0.00 | 58 | 1008.5 |
| 20260505122852 | 68 | 313 | 4.3 | 10.4 | 0.00 | 0.00 | 0.00 | 58 | 1008.5 |
| 20260505122750 | 68 | 323 | 4.3 | 9.6 | 0.00 | 0.00 | 0.00 | 58 | 1008.5 |
| 20260505122551 | 68 | 339 | 5.2 | 9.6 | 0.00 | 0.00 | 0.00 | 57 | 1008.5 |
| 20260505122447 | 68 | 322 | 4.3 | 9.6 | 0.00 | 0.00 | 0.00 | 58 | 1008.5 |
| 20260505122345 | 68 | 331 | 1.7 | 8.7 | 0.00 | 0.00 | 0.00 | 58 | 1008.5 |
| 20260505122243 | 68 | 330 | 1.7 | 10.4 | 0.00 | 0.00 | 0.00 | 59 | 1008.5 |
| 20260505122142 | 68 | 326 | 1.7 | 12.2 | 0.00 | 0.00 | 0.00 | 59 | 1008.5 |
| 20260505122041 | 68 | 331 | 2.6 | 12.2 | 0.00 | 0.00 | 0.00 | 59 | 1008.6 |
| 20260505121943 | 68 | 325 | 4.3 | 12.2 | 0.00 | 0.00 | 0.00 | 59 | 1008.5 |
| 20260505121838 | 68 | 320 | 5.2 | 12.2 | 0.00 | 0.00 | 0.00 | 59 | 1008.5 |
| 20260505121737 | 68 | 319 | 4.3 | 12.2 | 0.00 | 0.00 | 0.00 | 59 | 1008.6 |
| 20260505121639 | 68 | 329 | 3.5 | 12.2 | 0.00 | 0.00 | 0.00 | 59 | 1008.5 |
| 20260505121601 | 68 | 329 | 2.6 | 12.2 | 0.00 | 0.00 | 0.00 | 59 | 1008.5 |
| 20260505121525 | 68 | 355 | 5.2 | 12.2 | 0.00 | 0.00 | 0.00 | 58 | 1008.6 |
| 20260505121347 | 69 | 329 | 6.1 | 12.2 | 0.00 | 0.00 | 0.00 | 58 | 1008.6 |
| 20260505121308 | 69 | 331 | 4.3 | 10.4 | 0.00 | 0.00 | 0.00 | 59 | 1008.5 |
| 20260505121235 | 69 | 324 | 4.3 | 10.4 | 0.00 | 0.00 | 0.00 | 58 | 1008.6 |
| 20260505121032 | 69 | 321 | 4.3 | 9.6 | 0.00 | 0.00 | 0.00 | 59 | 1008.6 |
| 20260505120930 | 69 | 323 | 1.7 | 9.6 | 0.00 | 0.00 | 0.00 | 59 | 1008.6 |
| 20260505120827 | 69 | 334 | 2.6 | 9.6 | 0.00 | 0.00 | 0.00 | 59 | 1008.6 |
| 20260505120724 | 69 | 320 | 3.5 | 9.6 | 0.00 | 0.00 | 0.00 | 59 | 1008.6 |
| 20260505120528 | 69 | 313 | 4.3 | 7.8 | 0.00 | 0.00 | 0.00 | 59 | 1008.6 |
| 20260505120423 | 69 | 303 | 3.5 | 7.8 | 0.00 | 0.00 | 0.00 | 59 | 1008.6 |
| 20260505120322 | 69 | 298 | 3.5 | 11.3 | 0.00 | 0.00 | 0.00 | 60 | 1008.7 |
| 20260505120218 | 69 | 317 | 2.6 | 11.3 | 0.00 | 0.00 | 0.00 | 59 | 1008.6 |
| 20260505120015 | 69 | 336 | 0.9 | 11.3 | 0.00 | 0.00 | 0.00 | 59 | 1008.7 |
| 20260505115918 | 69 | 351 | 0.9 | 11.3 | 0.00 | 0.00 | 0.00 | 59 | 1008.6 |
| 20260505115812 | 69 | 331 | 1.7 | 11.3 | 0.00 | 0.00 | 0.00 | 58 | 1008.6 |
| 20260505115712 | 70 | 334 | 1.7 | 11.3 | 0.00 | 0.00 | 0.00 | 58 | 1008.7 |
| 20260505115610 | 70 | 308 | 2.6 | 11.3 | 0.00 | 0.00 | 0.00 | 58 | 1008.7 |
| 20260505115509 | 70 | 340 | 4.3 | 11.3 | 0.00 | 0.00 | 0.00 | 58 | 1008.7 |
| 20260505115408 | 70 | 322 | 6.1 | 11.3 | 0.00 | 0.00 | 0.00 | 58 | 1008.7 |
| 20260505115306 | 70 | 324 | 5.2 | 12.2 | 0.00 | 0.00 | 0.00 | 57 | 1008.6 |
| 20260505115205 | 71 | 327 | 5.2 | 12.2 | 0.00 | 0.00 | 0.00 | 57 | 1008.6 |
| 20260505115107 | 71 | 327 | 5.2 | 12.2 | 0.00 | 0.00 | 0.00 | 57 | 1008.6 |
| 20260505115002 | 71 | 319 | 6.1 | 12.2 | 0.00 | 0.00 | 0.00 | 57 | 1008.6 |
| 20260505114905 | 71 | 332 | 6.1 | 12.2 | 0.00 | 0.00 | 0.00 | 57 | 1008.6 |
| 20260505114825 | 71 | 320 | 6.1 | 12.2 | 0.00 | 0.00 | 0.00 | 57 | 1008.6 |
| 20260505114743 | 72 | 320 | 6.1 | 12.2 | 0.00 | 0.00 | 0.00 | 56 | 1008.7 |
| 20260505114558 | 72 | 330 | 7.8 | 12.2 | 0.00 | 0.00 | 0.00 | 57 | 1008.7 |
| 20260505114500 | 72 | 337 | 8.7 | 12.2 | 0.00 | 0.00 | 0.00 | 56 | 1008.7 |
| 20260505114359 | 72 | 325 | 7.0 | 12.2 | 0.00 | 0.00 | 0.00 | 56 | 1008.8 |
| 20260505114253 | 72 | 318 | 7.0 | 11.3 | 0.00 | 0.00 | 0.00 | 57 | 1008.8 |
| 20260505114152 | 72 | 314 | 6.1 | 11.3 | 0.00 | 0.00 | 0.00 | 56 | 1008.8 |
| 20260505114051 | 71 | 316 | 4.3 | 11.3 | 0.00 | 0.00 | 0.00 | 56 | 1008.8 |
| 20260505113951 | 71 | 322 | 1.7 | 7.0 | 0.00 | 0.00 | 0.00 | 57 | 1008.8 |
| 20260505113852 | 71 | 318 | 2.6 | 7.0 | 0.00 | 0.00 | 0.00 | 57 | 1008.8 |
| 20260505113751 | 71 | 14 | 3.5 | 7.0 | 0.00 | 0.00 | 0.00 | 56 | 1008.8 |
| 20260505113650 | 71 | 322 | 2.6 | 7.0 | 0.00 | 0.00 | 0.00 | 55 | 1008.8 |
| 20260505113548 | 71 | 288 | 1.7 | 7.0 | 0.00 | 0.00 | 0.00 | 55 | 1008.8 |
| 20260505113447 | 71 | 328 | 0.9 | 6.1 | 0.00 | 0.00 | 0.00 | 54 | 1008.8 |
| 20260505113346 | 71 | 353 | 1.7 | 6.1 | 0.00 | 0.00 | 0.00 | 52 | 1008.8 |
| 20260505113245 | 71 | 38 | 3.5 | 6.1 | 0.00 | 0.00 | 0.00 | 51 | 1008.8 |
| 20260505113152 | 71 | 32 | 3.5 | 6.1 | 0.00 | 0.00 | 0.00 | 52 | 1008.9 |
| 20260505113042 | 71 | 68 | 1.7 | 6.1 | 0.00 | 0.00 | 0.00 | 52 | 1008.8 |
| 20260505112942 | 70 | 75 | 0.0 | 6.1 | 0.00 | 0.00 | 0.00 | 50 | 1008.8 |
| 20260505112840 | 70 | 37 | 0.9 | 7.0 | 0.00 | 0.00 | 0.00 | 51 | 1008.8 |
| 20260505112739 | 70 | 37 | 0.9 | 7.0 | 0.00 | 0.00 | 0.00 | 51 | 1008.9 |
| 20260505112638 | 70 | 54 | 0.9 | 7.0 | 0.00 | 0.00 | 0.00 | 52 | 1008.9 |
| 20260505112545 | 70 | 41 | 1.7 | 7.0 | 0.00 | 0.00 | 0.00 | 52 | 1008.8 |
| 20260505112436 | 70 | 41 | 1.7 | 7.0 | 0.00 | 0.00 | 0.00 | 52 | 1008.9 |
| 20260505112334 | 70 | 37 | 1.7 | 7.0 | 0.00 | 0.00 | 0.00 | 54 | 1008.8 |
| 20260505112233 | 69 | 50 | 3.5 | 7.0 | 0.00 | 0.00 | 0.00 | 55 | 1008.9 |
| 20260505112134 | 69 | 53 | 4.3 | 7.0 | 0.00 | 0.00 | 0.00 | 54 | 1008.9 |
| 20260505112030 | 69 | 51 | 3.5 | 7.0 | 0.00 | 0.00 | 0.00 | 54 | 1008.9 |
| 20260505111928 | 69 | 69 | 1.7 | 4.3 | 0.00 | 0.00 | 0.00 | 56 | 1008.9 |
| 20260505111827 | 69 | 30 | 0.9 | 4.3 | 0.00 | 0.00 | 0.00 | 56 | 1009.0 |
| 20260505111753 | 69 | 356 | 0.9 | 4.3 | 0.00 | 0.00 | 0.00 | 56 | 1008.9 |
| 20260505111721 | 69 | 1 | 0.9 | 4.3 | 0.00 | 0.00 | 0.00 | 56 | 1009.0 |
| 20260505111525 | 69 | 359 | 0.9 | 4.3 | 0.00 | 0.00 | 0.00 | 56 | 1009.0 |
| 20260505111423 | 69 | 1 | 0.9 | 4.3 | 0.00 | 0.00 | 0.00 | 57 | 1008.9 |
| 20260505111322 | 69 | 8 | 1.7 | 6.1 | 0.00 | 0.00 | 0.00 | 58 | 1009.0 |
| 20260505111220 | 69 | 49 | 1.7 | 6.1 | 0.00 | 0.00 | 0.00 | 58 | 1009.0 |
| 20260505111116 | 68 | 49 | 0.9 | 6.1 | 0.00 | 0.00 | 0.00 | 58 | 1008.9 |
| 20260505111017 | 68 | 14 | 0.9 | 8.7 | 0.00 | 0.00 | 0.00 | 59 | 1009.0 |
| 20260505110916 | 68 | 28 | 0.0 | 8.7 | 0.00 | 0.00 | 0.00 | 58 | 1008.9 |
| 20260505110814 | 68 | 28 | 0.0 | 8.7 | 0.00 | 0.00 | 0.00 | 59 | 1008.9 |
| 20260505110715 | 68 | 28 | 0.9 | 8.7 | 0.00 | 0.00 | 0.00 | 58 | 1009.0 |
| 20260505110613 | 68 | 29 | 1.7 | 8.7 | 0.00 | 0.00 | 0.00 | 58 | 1009.0 |
| 20260505110514 | 68 | 29 | 2.6 | 8.7 | 0.00 | 0.00 | 0.00 | 58 | 1009.0 |
| 20260505110411 | 68 | 28 | 2.6 | 8.7 | 0.00 | 0.00 | 0.00 | 58 | 1009.0 |
| 20260505110309 | 68 | 24 | 1.7 | 8.7 | 0.00 | 0.00 | 0.00 | 58 | 1009.0 |
| 20260505110208 | 69 | 25 | 3.5 | 8.7 | 0.00 | 0.00 | 0.00 | 59 | 1009.0 |
| 20260505110112 | 69 | 35 | 1.7 | 8.7 | 0.00 | 0.00 | 0.00 | 58 | 1009.0 |
| 20260505102214 | 71 | 90 | 2.6 | 7.8 | 0.00 | 0.00 | 0.00 | 54 | 1009.2 |
| 20260505102113 | 71 | 84 | 2.6 | 7.8 | 0.00 | 0.00 | 0.00 | 55 | 1009.3 |
| 20260505102012 | 71 | 94 | 2.6 | 7.8 | 0.00 | 0.00 | 0.00 | 55 | 1009.3 |
| 20260505101911 | 71 | 103 | 2.6 | 7.8 | 0.00 | 0.00 | 0.00 | 56 | 1009.3 |
| 20260505101808 | 71 | 66 | 3.5 | 7.8 | 0.00 | 0.00 | 0.00 | 56 | 1009.4 |
| 20260505101707 | 71 | 72 | 3.5 | 7.8 | 0.00 | 0.00 | 0.00 | 55 | 1009.4 |
| 20260505101607 | 71 | 85 | 2.6 | 6.1 | 0.00 | 0.00 | 0.00 | 55 | 1009.4 |
| 20260505101505 | 71 | 115 | 2.6 | 5.2 | 0.00 | 0.00 | 0.00 | 55 | 1009.4 |
| 20260505101403 | 70 | 91 | 3.5 | 6.1 | 0.00 | 0.00 | 0.00 | 55 | 1009.5 |
| 20260505101304 | 71 | 83 | 3.5 | 6.1 | 0.00 | 0.00 | 0.00 | 56 | 1009.5 |
| 20260505101201 | 71 | 45 | 2.6 | 6.1 | 0.00 | 0.00 | 0.00 | 55 | 1009.6 |
| 20260505101100 | 71 | 68 | 2.6 | 7.0 | 0.00 | 0.00 | 0.00 | 56 | 1009.5 |
| 20260505101001 | 70 | 121 | 1.7 | 7.0 | 0.00 | 0.00 | 0.00 | 56 | 1009.5 |
| 20260505100856 | 70 | 97 | 1.7 | 7.0 | 0.00 | 0.00 | 0.00 | 58 | 1009.4 |
| 20260505100755 | 70 | 53 | 2.6 | 7.0 | 0.00 | 0.00 | 0.00 | 57 | 1009.6 |
| 20260505100653 | 69 | 38 | 3.5 | 7.0 | 0.00 | 0.00 | 0.00 | 56 | 1009.6 |
| 20260505100553 | 69 | 80 | 3.5 | 7.0 | 0.00 | 0.00 | 0.00 | 56 | 1009.5 |
| 20260505100457 | 69 | 68 | 3.5 | 7.0 | 0.00 | 0.00 | 0.00 | 57 | 1009.6 |
| 20260505100353 | 69 | 63 | 4.3 | 7.0 | 0.00 | 0.00 | 0.00 | 56 | 1009.6 |
| 20260505100301 | 69 | 63 | 4.3 | 7.0 | 0.00 | 0.00 | 0.00 | 57 | 1009.7 |
| 20260505100151 | 69 | 53 | 3.5 | 9.6 | 0.00 | 0.00 | 0.00 | 57 | 1009.6 |
| 20260505100101 | 69 | 73 | 5.2 | 9.6 | 0.00 | 0.00 | 0.00 | 58 | 1009.6 |
| 20260505095950 | 69 | 66 | 4.3 | 9.6 | 0.00 | 0.00 | 0.00 | 58 | 1009.6 |
| 20260505095847 | 69 | 78 | 4.3 | 9.6 | 0.00 | 0.00 | 0.00 | 58 | 1009.6 |
| 20260505095755 | 69 | 85 | 3.5 | 9.6 | 0.00 | 0.00 | 0.00 | 57 | 1009.7 |
| 20260505095721 | 69 | 72 | 2.6 | 9.6 | 0.00 | 0.00 | 0.00 | 58 | 1009.6 |
| 20260505095647 | 69 | 110 | 4.3 | 9.6 | 0.00 | 0.00 | 0.00 | 57 | 1009.7 |
| 20260505095441 | 69 | 99 | 5.2 | 9.6 | 0.00 | 0.00 | 0.00 | 58 | 1009.6 |
| 20260505095340 | 69 | 45 | 4.3 | 9.6 | 0.00 | 0.00 | 0.00 | 58 | 1009.6 |
| 20260505095238 | 69 | 76 | 2.6 | 9.6 | 0.00 | 0.00 | 0.00 | 59 | 1009.7 |
| 20260505095137 | 69 | 76 | 3.5 | 9.6 | 0.00 | 0.00 | 0.00 | 58 | 1009.7 |
| 20260505095036 | 69 | 85 | 6.1 | 9.6 | 0.00 | 0.00 | 0.00 | 57 | 1009.7 |
| 20260505094935 | 69 | 74 | 6.1 | 9.6 | 0.00 | 0.00 | 0.00 | 57 | 1009.7 |
| 20260505094833 | 69 | 72 | 5.2 | 9.6 | 0.00 | 0.00 | 0.00 | 58 | 1009.8 |
| 20260505094742 | 69 | 83 | 5.2 | 7.0 | 0.00 | 0.00 | 0.00 | 58 | 1009.7 |
| 20260505094709 | 69 | 68 | 3.5 | 7.0 | 0.00 | 0.00 | 0.00 | 58 | 1009.8 |
| 20260505094530 | 69 | 63 | 0.9 | 6.1 | 0.00 | 0.00 | 0.00 | 58 | 1009.8 |
| 20260505094428 | 69 | 60 | 0.0 | 5.2 | 0.00 | 0.00 | 0.00 | 59 | 1009.8 |
| 20260505094329 | 69 | 302 | 0.0 | 5.2 | 0.00 | 0.00 | 0.00 | 59 | 1009.8 |
| 20260505094227 | 68 | 26 | 0.0 | 5.2 | 0.00 | 0.00 | 0.00 | 61 | 1009.8 |
| 20260505094127 | 68 | 64 | 0.9 | 5.2 | 0.00 | 0.00 | 0.00 | 61 | 1009.8 |
| 20260505094025 | 68 | 64 | 0.9 | 7.8 | 0.00 | 0.00 | 0.00 | 60 | 1009.9 |
| 20260505093923 | 68 | 85 | 1.7 | 7.8 | 0.00 | 0.00 | 0.00 | 60 | 1009.8 |
| 20260505093822 | 67 | 84 | 3.5 | 7.8 | 0.00 | 0.00 | 0.00 | 59 | 1009.9 |
| 20260505093722 | 67 | 85 | 3.5 | 7.8 | 0.00 | 0.00 | 0.00 | 58 | 1009.9 |
| 20260505093620 | 67 | 65 | 2.6 | 7.8 | 0.00 | 0.00 | 0.00 | 58 | 1009.9 |
| 20260505093518 | 68 | 70 | 2.6 | 7.8 | 0.00 | 0.00 | 0.00 | 58 | 1009.9 |
| 20260505093415 | 68 | 67 | 2.6 | 7.8 | 0.00 | 0.00 | 0.00 | 59 | 1010.0 |
| 20260505093316 | 68 | 74 | 3.5 | 7.8 | 0.00 | 0.00 | 0.00 | 59 | 1010.0 |
| 20260505093214 | 68 | 74 | 4.3 | 7.8 | 0.00 | 0.00 | 0.00 | 60 | 1010.0 |
| 20260505093113 | 68 | 78 | 4.3 | 7.8 | 0.00 | 0.00 | 0.00 | 61 | 1010.0 |
| 20260505093011 | 68 | 87 | 4.3 | 7.8 | 0.00 | 0.00 | 0.00 | 61 | 1010.0 |
| 20260505092910 | 68 | 68 | 3.5 | 7.8 | 0.00 | 0.00 | 0.00 | 60 | 1010.0 |
| 20260505092808 | 68 | 80 | 0.9 | 7.8 | 0.00 | 0.00 | 0.00 | 60 | 1010.0 |
| 20260505092708 | 68 | 83 | 0.9 | 7.8 | 0.00 | 0.00 | 0.00 | 61 | 1010.0 |
| 20260505092607 | 68 | 60 | 0.9 | 7.8 | 0.00 | 0.00 | 0.00 | 61 | 1010.0 |
| 20260505092506 | 68 | 60 | 5.2 | 7.8 | 0.00 | 0.00 | 0.00 | 60 | 1010.0 |
| 20260505092404 | 68 | 71 | 4.3 | 7.8 | 0.00 | 0.00 | 0.00 | 60 | 1010.0 |
| 20260505092305 | 68 | 78 | 1.7 | 7.8 | 0.00 | 0.00 | 0.00 | 60 | 1010.0 |
| 20260505092201 | 68 | 78 | 3.5 | 7.8 | 0.00 | 0.00 | 0.00 | 60 | 1010.0 |
| 20260505092100 | 69 | 41 | 3.5 | 7.8 | 0.00 | 0.00 | 0.00 | 60 | 1010.0 |
| 20260505091958 | 69 | 27 | 3.5 | 7.8 | 0.00 | 0.00 | 0.00 | 61 | 1010.0 |
| 20260505091858 | 69 | 78 | 1.7 | 7.0 | 0.00 | 0.00 | 0.00 | 61 | 1010.0 |
| 20260505091757 | 69 | 53 | 0.9 | 7.0 | 0.00 | 0.00 | 0.00 | 61 | 1010.0 |
| 20260505091653 | 69 | 92 | 1.7 | 7.0 | 0.00 | 0.00 | 0.00 | 60 | 1010.1 |
| 20260505091552 | 68 | 122 | 2.6 | 7.0 | 0.00 | 0.00 | 0.00 | 60 | 1010.0 |
| 20260505091452 | 68 | 122 | 3.5 | 7.0 | 0.00 | 0.00 | 0.00 | 62 | 1010.1 |
| 20260505091350 | 68 | 115 | 2.6 | 7.0 | 0.00 | 0.00 | 0.00 | 62 | 1010.0 |
| 20260505091249 | 68 | 103 | 0.9 | 7.0 | 0.00 | 0.00 | 0.00 | 62 | 1010.0 |
| 20260505091148 | 67 | 63 | 1.7 | 7.0 | 0.00 | 0.00 | 0.00 | 62 | 1010.0 |
| 20260505091047 | 68 | 76 | 2.6 | 7.0 | 0.00 | 0.00 | 0.00 | 61 | 1010.1 |
| 20260505090946 | 68 | 70 | 3.5 | 7.0 | 0.00 | 0.00 | 0.00 | 61 | 1010.1 |
| 20260505090845 | 68 | 85 | 5.2 | 7.0 | 0.00 | 0.00 | 0.00 | 61 | 1010.1 |
| 20260505090748 | 68 | 62 | 2.6 | 7.0 | 0.00 | 0.00 | 0.00 | 61 | 1010.1 |
| 20260505090714 | 68 | 72 | 0.9 | 7.0 | 0.00 | 0.00 | 0.00 | 64 | 1010.1 |
| 20260505090641 | 68 | 13 | 0.9 | 8.7 | 0.00 | 0.00 | 0.00 | 64 | 1010.1 |
| 20260505090442 | 68 | 72 | 2.6 | 8.7 | 0.00 | 0.00 | 0.00 | 62 | 1010.1 |
| 20260505090339 | 68 | 72 | 2.6 | 8.7 | 0.00 | 0.00 | 0.00 | 63 | 1010.1 |
| 20260505090236 | 68 | 66 | 2.6 | 8.7 | 0.00 | 0.00 | 0.00 | 62 | 1010.1 |
| 20260505090136 | 69 | 91 | 2.6 | 8.7 | 0.00 | 0.00 | 0.00 | 61 | 1010.1 |
| 20260505090038 | 69 | 64 | 2.6 | 8.7 | 0.00 | 0.00 | 0.00 | 61 | 1010.1 |
| 20260505085938 | 69 | 84 | 3.5 | 8.7 | 0.00 | 0.00 | 0.00 | 63 | 1010.2 |
| 20260505085832 | 69 | 80 | 4.3 | 8.7 | 0.00 | 0.00 | 0.00 | 63 | 1010.2 |
| 20260505085731 | 69 | 52 | 5.2 | 8.7 | 0.00 | 0.00 | 0.00 | 63 | 1010.2 |
| 20260505085630 | 69 | 72 | 3.5 | 8.7 | 0.00 | 0.00 | 0.00 | 63 | 1010.2 |
| 20260505085426 | 68 | 80 | 3.5 | 7.0 | 0.00 | 0.00 | 0.00 | 63 | 1010.1 |
| 20260505085326 | 68 | 70 | 3.5 | 7.0 | 0.00 | 0.00 | 0.00 | 62 | 1010.2 |
| 20260505085224 | 68 | 78 | 3.5 | 7.0 | 0.00 | 0.00 | 0.00 | 63 | 1010.2 |
| 20260505085122 | 68 | 85 | 2.6 | 7.0 | 0.00 | 0.00 | 0.00 | 63 | 1010.2 |
| 20260505085021 | 68 | 83 | 3.5 | 7.0 | 0.00 | 0.00 | 0.00 | 63 | 1010.2 |
| 20260505084920 | 68 | 89 | 3.5 | 7.0 | 0.00 | 0.00 | 0.00 | 62 | 1010.2 |
| 20260505084819 | 68 | 101 | 3.5 | 7.0 | 0.00 | 0.00 | 0.00 | 63 | 1010.3 |
| 20260505084718 | 68 | 52 | 3.5 | 7.0 | 0.00 | 0.00 | 0.00 | 65 | 1010.2 |
| 20260505084617 | 68 | 78 | 1.7 | 6.1 | 0.00 | 0.00 | 0.00 | 66 | 1010.2 |
| 20260505084515 | 68 | 93 | 1.7 | 3.5 | 0.00 | 0.00 | 0.00 | 66 | 1010.2 |
| 20260505084413 | 68 | 92 | 1.7 | 3.5 | 0.00 | 0.00 | 0.00 | 66 | 1010.2 |
| 20260505084312 | 67 | 108 | 1.7 | 3.5 | 0.00 | 0.00 | 0.00 | 66 | 1010.2 |
| 20260505084211 | 67 | 120 | 0.9 | 3.5 | 0.00 | 0.00 | 0.00 | 67 | 1010.2 |
| 20260505084110 | 67 | 85 | 0.9 | 3.5 | 0.00 | 0.00 | 0.00 | 68 | 1010.2 |
| 20260505084008 | 66 | 74 | 2.6 | 3.5 | 0.00 | 0.00 | 0.00 | 69 | 1010.2 |
| 20260505083907 | 66 | 66 | 2.6 | 3.5 | 0.00 | 0.00 | 0.00 | 69 | 1010.2 |
| 20260505083806 | 66 | 70 | 0.9 | 3.5 | 0.00 | 0.00 | 0.00 | 69 | 1010.3 |
| 20260505083705 | 66 | 91 | 0.9 | 3.5 | 0.00 | 0.00 | 0.00 | 69 | 1010.2 |
| 20260505083604 | 65 | 138 | 0.9 | 3.5 | 0.00 | 0.00 | 0.00 | 69 | 1010.2 |
| 20260505083501 | 65 | 143 | 0.9 | 3.5 | 0.00 | 0.00 | 0.00 | 69 | 1010.2 |
| 20260505083400 | 65 | 148 | 1.7 | 3.5 | 0.00 | 0.00 | 0.00 | 69 | 1010.2 |
| 20260505083259 | 65 | 136 | 2.6 | 4.3 | 0.00 | 0.00 | 0.00 | 69 | 1010.3 |
| 20260505083157 | 65 | 135 | 1.7 | 4.3 | 0.00 | 0.00 | 0.00 | 69 | 1010.3 |
| 20260505083055 | 65 | 124 | 0.0 | 4.3 | 0.00 | 0.00 | 0.00 | 69 | 1010.3 |
| 20260505082954 | 65 | 112 | 0.9 | 4.3 | 0.00 | 0.00 | 0.00 | 69 | 1010.3 |
| 20260505082853 | 65 | 112 | 1.7 | 4.3 | 0.00 | 0.00 | 0.00 | 68 | 1010.3 |
| 20260505082753 | 65 | 107 | 1.7 | 4.3 | 0.00 | 0.00 | 0.00 | 68 | 1010.3 |
| 20260505082651 | 65 | 104 | 2.6 | 4.3 | 0.00 | 0.00 | 0.00 | 68 | 1010.3 |
| 20260505082550 | 65 | 90 | 2.6 | 4.3 | 0.00 | 0.00 | 0.00 | 69 | 1010.2 |
| 20260505082449 | 65 | 96 | 2.6 | 4.3 | 0.00 | 0.00 | 0.00 | 69 | 1010.2 |
| 20260505082347 | 65 | 105 | 2.6 | 4.3 | 0.00 | 0.00 | 0.00 | 70 | 1010.2 |
| 20260505082248 | 65 | 91 | 1.7 | 4.3 | 0.00 | 0.00 | 0.00 | 69 | 1010.2 |
| 20260505082147 | 65 | 89 | 1.7 | 4.3 | 0.00 | 0.00 | 0.00 | 70 | 1010.2 |
| 20260505082044 | 65 | 95 | 2.6 | 7.0 | 0.00 | 0.00 | 0.00 | 70 | 1010.3 |
| 20260505081943 | 65 | 98 | 2.6 | 7.0 | 0.00 | 0.00 | 0.00 | 70 | 1010.3 |
| 20260505081842 | 65 | 89 | 1.7 | 7.0 | 0.00 | 0.00 | 0.00 | 71 | 1010.3 |
| 20260505081741 | 65 | 116 | 1.7 | 7.0 | 0.00 | 0.00 | 0.00 | 71 | 1010.2 |
| 20260505081640 | 65 | 105 | 1.7 | 7.0 | 0.00 | 0.00 | 0.00 | 71 | 1010.3 |
| 20260505081539 | 65 | 99 | 2.6 | 7.0 | 0.00 | 0.00 | 0.00 | 70 | 1010.2 |
| 20260505081435 | 65 | 93 | 2.6 | 7.0 | 0.00 | 0.00 | 0.00 | 70 | 1010.3 |
| 20260505081334 | 65 | 89 | 3.5 | 7.0 | 0.00 | 0.00 | 0.00 | 70 | 1010.3 |
| 20260505081233 | 65 | 89 | 3.5 | 7.0 | 0.00 | 0.00 | 0.00 | 70 | 1010.3 |
| 20260505081131 | 65 | 95 | 2.6 | 7.0 | 0.00 | 0.00 | 0.00 | 70 | 1010.3 |
| 20260505081030 | 65 | 85 | 1.7 | 3.5 | 0.00 | 0.00 | 0.00 | 71 | 1010.3 |
| 20260505080930 | 65 | 92 | 0.9 | 3.5 | 0.00 | 0.00 | 0.00 | 71 | 1010.3 |
| 20260505080828 | 65 | 93 | 1.7 | 3.5 | 0.00 | 0.00 | 0.00 | 72 | 1010.3 |
| 20260505080726 | 65 | 103 | 1.7 | 3.5 | 0.00 | 0.00 | 0.00 | 73 | 1010.3 |
| 20260505080625 | 65 | 105 | 1.7 | 3.5 | 0.00 | 0.00 | 0.00 | 72 | 1010.2 |
| 20260505080426 | 64 | 78 | 0.0 | 3.5 | 0.00 | 0.00 | 0.00 | 73 | 1010.3 |
| 20260505080322 | 64 | 52 | 0.0 | 3.5 | 0.00 | 0.00 | 0.00 | 73 | 1010.4 |
| 20260505080222 | 64 | 52 | 0.9 | 3.5 | 0.00 | 0.00 | 0.00 | 73 | 1010.3 |
| 20260505080121 | 64 | 51 | 0.9 | 3.5 | 0.00 | 0.00 | 0.00 | 73 | 1010.4 |
| 20260505075923 | 64 | 92 | 1.7 | 3.5 | 0.00 | 0.00 | 0.00 | 73 | 1010.4 |
| 20260505075817 | 64 | 85 | 1.7 | 3.5 | 0.00 | 0.00 | 0.00 | 73 | 1010.4 |
| 20260505075724 | 64 | 84 | 1.7 | 3.5 | 0.00 | 0.00 | 0.00 | 73 | 1010.4 |
| 20260505075653 | 64 | 108 | 1.7 | 3.5 | 0.00 | 0.00 | 0.00 | 73 | 1010.4 |
| 20260505075618 | 63 | 89 | 2.6 | 3.5 | 0.00 | 0.00 | 0.00 | 72 | 1010.5 |
| 20260505075412 | 63 | 112 | 2.6 | 3.5 | 0.00 | 0.00 | 0.00 | 72 | 1010.4 |
| 20260505075312 | 63 | 103 | 1.7 | 3.5 | 0.00 | 0.00 | 0.00 | 73 | 1010.4 |
| 20260505075210 | 63 | 62 | 0.9 | 2.6 | 0.00 | 0.00 | 0.00 | 73 | 1010.4 |
| 20260505075109 | 63 | 326 | 0.9 | 3.5 | 0.00 | 0.00 | 0.00 | 73 | 1010.4 |
| 20260505075007 | 63 | 326 | 0.0 | 3.5 | 0.00 | 0.00 | 0.00 | 74 | 1010.5 |
| 20260505074904 | 63 | 343 | 0.0 | 3.5 | 0.00 | 0.00 | 0.00 | 74 | 1010.4 |
| 20260505074804 | 63 | 344 | 0.9 | 3.5 | 0.00 | 0.00 | 0.00 | 74 | 1010.4 |
| 20260505074703 | 62 | 344 | 0.0 | 3.5 | 0.00 | 0.00 | 0.00 | 73 | 1010.5 |
| 20260505074601 | 62 | 343 | 0.0 | 3.5 | 0.00 | 0.00 | 0.00 | 75 | 1010.4 |
| 20260505074500 | 62 | 48 | 1.7 | 3.5 | 0.00 | 0.00 | 0.00 | 75 | 1010.5 |
| 20260505074359 | 62 | 56 | 1.7 | 6.1 | 0.00 | 0.00 | 0.00 | 75 | 1010.5 |
| 20260505074257 | 61 | 56 | 0.9 | 6.1 | 0.00 | 0.00 | 0.00 | 75 | 1010.5 |
| 20260505074157 | 61 | 58 | 0.0 | 6.1 | 0.00 | 0.00 | 0.00 | 75 | 1010.5 |
| 20260505074057 | 61 | 45 | 0.9 | 6.1 | 0.00 | 0.00 | 0.00 | 75 | 1010.5 |
| 20260505073954 | 61 | 45 | 1.7 | 6.1 | 0.00 | 0.00 | 0.00 | 75 | 1010.5 |
| 20260505073849 | 61 | 45 | 1.7 | 6.1 | 0.00 | 0.00 | 0.00 | 75 | 1010.5 |
| 20260505073742 | 61 | 56 | 0.9 | 6.1 | 0.00 | 0.00 | 0.00 | 76 | 1010.5 |
| 20260505073641 | 61 | 54 | 1.7 | 6.1 | 0.00 | 0.00 | 0.00 | 77 | 1010.5 |
| 20260505073540 | 61 | 323 | 2.6 | 6.1 | 0.00 | 0.00 | 0.00 | 77 | 1010.5 |
| 20260505073438 | 61 | 312 | 2.6 | 5.2 | 0.00 | 0.00 | 0.00 | 76 | 1010.5 |
| 20260505073337 | 60 | 276 | 1.7 | 3.5 | 0.00 | 0.00 | 0.00 | 76 | 1010.5 |
| 20260505073236 | 60 | 298 | 1.7 | 3.5 | 0.00 | 0.00 | 0.00 | 76 | 1010.5 |
| 20260505073135 | 60 | 316 | 0.9 | 5.2 | 0.00 | 0.00 | 0.00 | 75 | 1010.6 |
| 20260505073032 | 60 | 305 | 0.9 | 5.2 | 0.00 | 0.00 | 0.00 | 76 | 1010.6 |
| 20260505072931 | 60 | 303 | 0.0 | 5.2 | 0.00 | 0.00 | 0.00 | 77 | 1010.6 |
| 20260505072830 | 60 | 326 | 0.0 | 5.2 | 0.00 | 0.00 | 0.00 | 77 | 1010.6 |
| 20260505072729 | 60 | 326 | 1.7 | 5.2 | 0.00 | 0.00 | 0.00 | 78 | 1010.6 |
| 20260505072628 | 60 | 326 | 1.7 | 5.2 | 0.00 | 0.00 | 0.00 | 77 | 1010.6 |
| 20260505072526 | 60 | 320 | 0.9 | 5.2 | 0.00 | 0.00 | 0.00 | 78 | 1010.6 |
| 20260505072423 | 59 | 311 | 0.9 | 5.2 | 0.00 | 0.00 | 0.00 | 78 | 1010.6 |
| 20260505072323 | 59 | 303 | 1.7 | 5.2 | 0.00 | 0.00 | 0.00 | 78 | 1010.6 |
| 20260505072219 | 59 | 303 | 2.6 | 5.2 | 0.00 | 0.00 | 0.00 | 78 | 1010.6 |
| 20260505072118 | 59 | 324 | 2.6 | 5.2 | 0.00 | 0.00 | 0.00 | 78 | 1010.6 |
| 20260505072018 | 59 | 321 | 1.7 | 5.2 | 0.00 | 0.00 | 0.00 | 79 | 1010.6 |
| 20260505071918 | 59 | 320 | 0.9 | 5.2 | 0.00 | 0.00 | 0.00 | 80 | 1010.7 |
| 20260505071818 | 59 | 347 | 0.0 | 5.2 | 0.00 | 0.00 | 0.00 | 80 | 1010.6 |
| 20260505071714 | 59 | 14 | 0.9 | 5.2 | 0.00 | 0.00 | 0.00 | 80 | 1010.7 |
| 20260505071641 | 59 | 11 | 1.7 | 6.1 | 0.00 | 0.00 | 0.00 | 80 | 1010.7 |
| 20260505071605 | 59 | 3 | 0.9 | 6.1 | 0.00 | 0.00 | 0.00 | 80 | 1010.6 |
| 20260505071401 | 59 | 332 | 0.0 | 6.1 | 0.00 | 0.00 | 0.00 | 80 | 1010.7 |
| 20260505071256 | 58 | 332 | 0.9 | 6.1 | 0.00 | 0.00 | 0.00 | 80 | 1010.8 |
| 20260505071155 | 58 | 328 | 0.9 | 6.1 | 0.00 | 0.00 | 0.00 | 80 | 1010.7 |
| 20260505071053 | 58 | 328 | 0.0 | 6.1 | 0.00 | 0.00 | 0.00 | 80 | 1010.7 |
| 20260505070951 | 58 | 328 | 0.9 | 6.1 | 0.00 | 0.00 | 0.00 | 80 | 1010.7 |
| 20260505070849 | 58 | 328 | 1.7 | 6.1 | 0.00 | 0.00 | 0.00 | 81 | 1010.7 |
| 20260505070749 | 58 | 326 | 2.6 | 6.1 | 0.00 | 0.00 | 0.00 | 81 | 1010.7 |
| 20260505070648 | 58 | 324 | 3.5 | 6.1 | 0.00 | 0.00 | 0.00 | 80 | 1010.7 |
| 20260505070547 | 58 | 330 | 2.6 | 6.1 | 0.00 | 0.00 | 0.00 | 80 | 1010.7 |
| 20260505070444 | 58 | 324 | 0.9 | 6.1 | 0.00 | 0.00 | 0.00 | 81 | 1010.7 |
| 20260505070344 | 58 | 305 | 1.7 | 3.5 | 0.00 | 0.00 | 0.00 | 81 | 1010.7 |
| 20260505070244 | 58 | 303 | 1.7 | 3.5 | 0.00 | 0.00 | 0.00 | 81 | 1010.7 |
| 20260505070142 | 58 | 318 | 2.6 | 3.5 | 0.00 | 0.00 | 0.00 | 81 | 1010.7 |
| 20260505070041 | 58 | 328 | 2.6 | 3.5 | 0.00 | 0.00 | 0.00 | 80 | 1010.6 |
| 20260505065934 | 58 | 327 | 1.7 | 3.5 | 0.00 | 0.00 | 0.00 | 81 | 1010.7 |
| 20260505065833 | 58 | 325 | 1.7 | 3.5 | 0.00 | 0.00 | 0.00 | 81 | 1010.6 |
| 20260505065731 | 58 | 326 | 0.9 | 3.5 | 0.00 | 0.00 | 0.00 | 81 | 1010.7 |
| 20260505065630 | 58 | 322 | 0.0 | 3.5 | 0.00 | 0.00 | 0.00 | 81 | 1010.7 |
| 20260505065530 | 58 | 322 | 0.9 | 3.5 | 0.00 | 0.00 | 0.00 | 81 | 1010.7 |
| 20260505065429 | 58 | 322 | 0.9 | 3.5 | 0.00 | 0.00 | 0.00 | 81 | 1010.7 |
| 20260505065327 | 58 | 322 | 1.7 | 3.5 | 0.00 | 0.00 | 0.00 | 81 | 1010.7 |
| 20260505065225 | 58 | 329 | 1.7 | 3.5 | 0.00 | 0.00 | 0.00 | 81 | 1010.7 |
| 20260505065124 | 58 | 327 | 0.9 | 3.5 | 0.00 | 0.00 | 0.00 | 81 | 1010.7 |
| 20260505065023 | 58 | 328 | 0.0 | 3.5 | 0.00 | 0.00 | 0.00 | 82 | 1010.7 |
| 20260505064922 | 58 | 328 | 0.0 | 5.2 | 0.00 | 0.00 | 0.00 | 81 | 1010.7 |
| 20260505064821 | 58 | 328 | 0.0 | 5.2 | 0.00 | 0.00 | 0.00 | 81 | 1010.8 |
| 20260505064719 | 58 | 328 | 0.0 | 5.2 | 0.00 | 0.00 | 0.00 | 81 | 1010.8 |
| 20260505064616 | 58 | 328 | 0.9 | 5.2 | 0.00 | 0.00 | 0.00 | 81 | 1010.9 |
| 20260505064517 | 58 | 328 | 0.9 | 5.2 | 0.00 | 0.00 | 0.00 | 81 | 1010.8 |
| 20260505064415 | 58 | 328 | 0.0 | 5.2 | 0.00 | 0.00 | 0.00 | 81 | 1010.9 |
| 20260505064315 | 58 | 328 | 1.7 | 5.2 | 0.00 | 0.00 | 0.00 | 81 | 1010.9 |
| 20260505064213 | 58 | 328 | 1.7 | 5.2 | 0.00 | 0.00 | 0.00 | 81 | 1010.9 |
| 20260505064113 | 58 | 323 | 1.7 | 5.2 | 0.00 | 0.00 | 0.00 | 82 | 1010.8 |
| 20260505064011 | 58 | 328 | 1.7 | 5.2 | 0.00 | 0.00 | 0.00 | 82 | 1010.8 |
| 20260505063910 | 58 | 326 | 1.7 | 5.2 | 0.00 | 0.00 | 0.00 | 81 | 1010.8 |
| 20260505063803 | 58 | 326 | 2.6 | 5.2 | 0.00 | 0.00 | 0.00 | 81 | 1010.8 |
| 20260505063702 | 58 | 325 | 1.7 | 5.2 | 0.00 | 0.00 | 0.00 | 81 | 1010.9 |
| 20260505063601 | 58 | 330 | 1.7 | 3.5 | 0.00 | 0.00 | 0.00 | 81 | 1010.9 |
| 20260505063401 | 57 | 331 | 0.0 | 3.5 | 0.00 | 0.00 | 0.00 | 82 | 1010.9 |
| 20260505063257 | 57 | 332 | 0.9 | 3.5 | 0.00 | 0.00 | 0.00 | 82 | 1010.9 |
| 20260505063151 | 57 | 332 | 0.9 | 3.5 | 0.00 | 0.00 | 0.00 | 82 | 1010.9 |
| 20260505063054 | 57 | 334 | 0.0 | 3.5 | 0.00 | 0.00 | 0.00 | 82 | 1010.9 |
| 20260505062846 | 57 | 2 | 0.9 | 4.3 | 0.00 | 0.00 | 0.00 | 82 | 1010.9 |
| 20260505062745 | 57 | 2 | 1.7 | 4.3 | 0.00 | 0.00 | 0.00 | 82 | 1010.9 |
| 20260505062643 | 57 | 326 | 0.9 | 4.3 | 0.00 | 0.00 | 0.00 | 82 | 1010.9 |
| 20260505062541 | 57 | 326 | 0.9 | 5.2 | 0.00 | 0.00 | 0.00 | 82 | 1011.0 |
| 20260505062340 | 57 | 335 | 0.9 | 5.2 | 0.00 | 0.00 | 0.00 | 82 | 1011.0 |
| 20260505062240 | 57 | 54 | 1.7 | 5.2 | 0.00 | 0.00 | 0.00 | 82 | 1011.0 |
| 20260505062139 | 57 | 61 | 1.7 | 5.2 | 0.00 | 0.00 | 0.00 | 82 | 1010.9 |
| 20260505062027 | 57 | 62 | 0.9 | 5.2 | 0.00 | 0.00 | 0.00 | 83 | 1011.0 |
| 20260505061924 | 57 | 324 | 0.0 | 5.2 | 0.00 | 0.00 | 0.00 | 83 | 1011.0 |
| 20260505061825 | 57 | 324 | 1.7 | 5.2 | 0.00 | 0.00 | 0.00 | 83 | 1011.0 |
| 20260505061723 | 57 | 323 | 2.6 | 5.2 | 0.00 | 0.00 | 0.00 | 82 | 1011.0 |
| 20260505061621 | 57 | 324 | 0.9 | 5.2 | 0.00 | 0.00 | 0.00 | 83 | 1011.0 |
| 20260505061521 | 57 | 331 | 0.0 | 3.5 | 0.00 | 0.00 | 0.00 | 83 | 1011.1 |
| 20260505061418 | 57 | 331 | 0.9 | 3.5 | 0.00 | 0.00 | 0.00 | 82 | 1011.1 |
| 20260505061317 | 57 | 331 | 0.9 | 3.5 | 0.00 | 0.00 | 0.00 | 83 | 1011.1 |
| 20260505061215 | 57 | 346 | 0.0 | 3.5 | 0.00 | 0.00 | 0.00 | 83 | 1011.1 |
| 20260505061127 | 57 | 17 | 0.0 | 3.5 | 0.00 | 0.00 | 0.00 | 82 | 1011.1 |
| 20260505061054 | 57 | 17 | 0.0 | 3.5 | 0.00 | 0.00 | 0.00 | 82 | 1011.1 |
| 20260505060913 | 57 | 17 | 0.9 | 3.5 | 0.00 | 0.00 | 0.00 | 82 | 1011.1 |
| 20260505060811 | 57 | 10 | 0.9 | 3.5 | 0.00 | 0.00 | 0.00 | 82 | 1011.1 |
| 20260505060707 | 57 | 10 | 0.0 | 3.5 | 0.00 | 0.00 | 0.00 | 83 | 1011.0 |
| 20260505060607 | 57 | 334 | 0.0 | 2.6 | 0.00 | 0.00 | 0.00 | 83 | 1011.1 |
| 20260505060506 | 56 | 334 | 0.0 | 3.5 | 0.00 | 0.00 | 0.00 | 83 | 1011.0 |
| 20260505060405 | 56 | 334 | 0.9 | 3.5 | 0.00 | 0.00 | 0.00 | 83 | 1011.1 |
| 20260505060251 | 56 | 334 | 0.9 | 3.5 | 0.00 | 0.00 | 0.00 | 83 | 1011.0 |
| 20260505060153 | 56 | 330 | 0.9 | 3.5 | 0.00 | 0.00 | 0.00 | 83 | 1011.1 |
| 20260505060100 | 56 | 330 | 0.9 | 3.5 | 0.00 | 0.00 | 0.00 | 83 | 1011.0 |
| 20260505055945 | 56 | 330 | 0.9 | 3.5 | 0.00 | 0.00 | 0.00 | 83 | 1011.2 |
| 20260505055849 | 56 | 241 | 1.7 | 3.5 | 0.00 | 0.00 | 0.00 | 82 | 1011.2 |
| 20260505055743 | 56 | 241 | 1.7 | 3.5 | 0.00 | 0.00 | 0.00 | 82 | 1011.1 |
| 20260505055643 | 56 | 254 | 1.7 | 3.5 | 0.00 | 0.00 | 0.00 | 82 | 1011.2 |
| 20260505055541 | 56 | 248 | 0.0 | 3.5 | 0.00 | 0.00 | 0.00 | 83 | 1011.1 |
| 20260505055339 | 56 | 253 | 0.9 | 6.1 | 0.00 | 0.00 | 0.00 | 83 | 1011.2 |
| 20260505055232 | 56 | 242 | 0.9 | 6.1 | 0.00 | 0.00 | 0.00 | 83 | 1011.1 |
| 20260505055124 | 56 | 224 | 0.0 | 6.1 | 0.00 | 0.00 | 0.00 | 83 | 1011.1 |
| 20260505055023 | 56 | 320 | 0.0 | 6.1 | 0.00 | 0.00 | 0.00 | 83 | 1011.1 |
| 20260505054921 | 56 | 320 | 0.9 | 6.1 | 0.00 | 0.00 | 0.00 | 83 | 1011.1 |
| 20260505054820 | 56 | 320 | 0.9 | 6.1 | 0.00 | 0.00 | 0.00 | 83 | 1011.1 |
| 20260505054719 | 56 | 312 | 1.7 | 6.1 | 0.00 | 0.00 | 0.00 | 83 | 1011.2 |
| 20260505054619 | 56 | 323 | 1.7 | 6.1 | 0.00 | 0.00 | 0.00 | 82 | 1011.1 |
| 20260505054518 | 56 | 314 | 1.7 | 6.1 | 0.00 | 0.00 | 0.00 | 82 | 1011.2 |
| 20260505054411 | 56 | 314 | 2.6 | 6.1 | 0.00 | 0.00 | 0.00 | 82 | 1011.2 |
| 20260505054310 | 56 | 324 | 2.6 | 6.1 | 0.00 | 0.00 | 0.00 | 82 | 1011.1 |
| 20260505054209 | 56 | 327 | 1.7 | 6.1 | 0.00 | 0.00 | 0.00 | 82 | 1011.1 |
| 20260505054107 | 56 | 314 | 1.7 | 4.3 | 0.00 | 0.00 | 0.00 | 82 | 1011.1 |
| 20260505054006 | 56 | 282 | 0.0 | 4.3 | 0.00 | 0.00 | 0.00 | 83 | 1011.1 |
| 20260505053905 | 56 | 287 | 0.0 | 4.3 | 0.00 | 0.00 | 0.00 | 83 | 1011.1 |
| 20260505053759 | 56 | 318 | 0.9 | 4.3 | 0.00 | 0.00 | 0.00 | 83 | 1011.1 |
| 20260505053659 | 56 | 318 | 0.9 | 6.1 | 0.00 | 0.00 | 0.00 | 83 | 1011.0 |
| 20260505053555 | 55 | 313 | 0.0 | 6.1 | 0.00 | 0.00 | 0.00 | 83 | 1011.0 |
| 20260505053453 | 55 | 267 | 0.9 | 6.1 | 0.00 | 0.00 | 0.00 | 83 | 1011.0 |
| 20260505053353 | 55 | 267 | 1.7 | 6.1 | 0.00 | 0.00 | 0.00 | 83 | 1011.0 |
| 20260505053252 | 55 | 267 | 1.7 | 6.1 | 0.00 | 0.00 | 0.00 | 83 | 1011.0 |
| 20260505053152 | 55 | 289 | 0.0 | 6.1 | 0.00 | 0.00 | 0.00 | 84 | 1011.0 |
| 20260505053050 | 55 | 322 | 0.0 | 6.1 | 0.00 | 0.00 | 0.00 | 85 | 1010.9 |
| 20260505052951 | 55 | 322 | 1.7 | 6.1 | 0.00 | 0.00 | 0.00 | 84 | 1011.1 |
| 20260505052846 | 55 | 322 | 1.7 | 7.0 | 0.00 | 0.00 | 0.00 | 84 | 1011.0 |
| 20260505052745 | 55 | 289 | 0.9 | 7.0 | 0.00 | 0.00 | 0.00 | 84 | 1011.0 |
| 20260505052647 | 55 | 323 | 0.9 | 7.0 | 0.00 | 0.00 | 0.00 | 84 | 1011.0 |
| 20260505052545 | 55 | 318 | 0.0 | 7.0 | 0.00 | 0.00 | 0.00 | 84 | 1011.0 |
| 20260505052442 | 55 | 318 | 0.9 | 7.0 | 0.00 | 0.00 | 0.00 | 84 | 1011.0 |
| 20260505052344 | 55 | 318 | 1.7 | 7.0 | 0.00 | 0.00 | 0.00 | 84 | 1010.8 |
| 20260505052238 | 55 | 319 | 0.9 | 7.0 | 0.00 | 0.00 | 0.00 | 84 | 1010.9 |
| 20260505052137 | 55 | 321 | 1.7 | 7.0 | 0.00 | 0.00 | 0.00 | 84 | 1010.9 |
| 20260505052036 | 55 | 319 | 2.6 | 7.0 | 0.00 | 0.00 | 0.00 | 84 | 1010.9 |
| 20260505051935 | 55 | 322 | 0.9 | 7.0 | 0.00 | 0.00 | 0.00 | 84 | 1010.9 |
| 20260505051836 | 55 | 325 | 0.9 | 6.1 | 0.00 | 0.00 | 0.00 | 84 | 1010.9 |
| 20260505051733 | 55 | 343 | 1.7 | 6.1 | 0.00 | 0.00 | 0.00 | 84 | 1010.9 |
| 20260505051632 | 55 | 13 | 0.9 | 6.1 | 0.00 | 0.00 | 0.00 | 84 | 1010.8 |
| 20260505051530 | 55 | 326 | 0.9 | 6.1 | 0.00 | 0.00 | 0.00 | 84 | 1010.8 |
| 20260505051328 | 55 | 325 | 1.7 | 6.1 | 0.00 | 0.00 | 0.00 | 85 | 1010.8 |
| 20260505051227 | 55 | 329 | 0.9 | 5.2 | 0.00 | 0.00 | 0.00 | 85 | 1010.8 |
| 20260505051126 | 54 | 330 | 0.9 | 2.6 | 0.00 | 0.00 | 0.00 | 85 | 1010.8 |
| 20260505051025 | 54 | 330 | 0.0 | 3.5 | 0.00 | 0.00 | 0.00 | 85 | 1010.9 |
| 20260505050926 | 54 | 325 | 0.0 | 3.5 | 0.00 | 0.00 | 0.00 | 85 | 1010.9 |
| 20260505050822 | 54 | 326 | 0.0 | 3.5 | 0.00 | 0.00 | 0.00 | 85 | 1010.8 |
| 20260505050722 | 54 | 325 | 0.0 | 3.5 | 0.00 | 0.00 | 0.00 | 85 | 1010.8 |
| 20260505050621 | 54 | 325 | 0.9 | 3.5 | 0.00 | 0.00 | 0.00 | 85 | 1010.9 |
| 20260505050518 | 54 | 326 | 0.9 | 3.5 | 0.00 | 0.00 | 0.00 | 85 | 1010.8 |
| 20260505050313 | 54 | 343 | 0.9 | 3.5 | 0.00 | 0.00 | 0.00 | 85 | 1010.9 |
| 20260505050211 | 54 | 343 | 0.9 | 3.5 | 0.00 | 0.00 | 0.00 | 85 | 1010.8 |
| 20260505050110 | 54 | 324 | 0.0 | 3.5 | 0.00 | 0.00 | 0.00 | 86 | 1010.9 |
| 20260505041709 | 54 | 316 | 5.2 | 11.3 | 0.00 | 0.00 | 0.00 | 85 | 1010.9 |
| 20260505041608 | 54 | 318 | 5.2 | 11.3 | 0.00 | 0.00 | 0.00 | 85 | 1011.0 |
| 20260505041508 | 54 | 326 | 3.5 | 11.3 | 0.00 | 0.00 | 0.00 | 85 | 1011.0 |
| 20260505041409 | 54 | 323 | 3.5 | 10.4 | 0.00 | 0.00 | 0.00 | 85 | 1011.0 |
| 20260505041321 | 54 | 328 | 5.2 | 11.3 | 0.00 | 0.00 | 0.00 | 84 | 1011.0 |
| 20260505041247 | 54 | 327 | 7.0 | 11.3 | 0.00 | 0.00 | 0.00 | 84 | 1011.0 |
| 20260505041108 | 54 | 327 | 7.8 | 11.3 | 0.00 | 0.00 | 0.00 | 84 | 1011.0 |
| 20260505041035 | 54 | 318 | 7.0 | 11.3 | 0.00 | 0.00 | 0.00 | 84 | 1011.0 |
| 20260505041002 | 54 | 320 | 6.1 | 11.3 | 0.00 | 0.00 | 0.00 | 84 | 1011.0 |
| 20260505040757 | 54 | 328 | 7.0 | 11.3 | 0.00 | 0.00 | 0.00 | 84 | 1011.1 |
| 20260505040656 | 54 | 320 | 6.1 | 12.2 | 0.00 | 0.00 | 0.00 | 84 | 1011.1 |
| 20260505040615 | 54 | 340 | 6.1 | 12.2 | 0.00 | 0.00 | 0.00 | 84 | 1011.0 |
| 20260505040541 | 54 | 317 | 7.0 | 12.2 | 0.00 | 0.00 | 0.00 | 84 | 1011.1 |
| 20260505040456 | 54 | 317 | 7.0 | 12.2 | 0.00 | 0.00 | 0.00 | 84 | 1011.1 |
| 20260505040250 | 54 | 325 | 6.1 | 12.2 | 0.00 | 0.00 | 0.00 | 84 | 1011.2 |
| 20260505040150 | 54 | 324 | 7.0 | 12.2 | 0.00 | 0.00 | 0.00 | 84 | 1011.1 |
| 20260505040056 | 54 | 324 | 8.7 | 12.2 | 0.00 | 0.00 | 0.00 | 84 | 1011.2 |
| 20260505035946 | 54 | 322 | 9.6 | 12.2 | 0.00 | 0.00 | 0.00 | 84 | 1011.2 |
| 20260505035846 | 54 | 330 | 7.8 | 12.2 | 0.00 | 0.00 | 0.00 | 84 | 1011.2 |
| 20260505035745 | 54 | 322 | 7.8 | 12.2 | 0.00 | 0.00 | 0.00 | 84 | 1011.1 |
| 20260505035642 | 54 | 335 | 7.0 | 12.2 | 0.00 | 0.00 | 0.00 | 84 | 1011.2 |
| 20260505035542 | 54 | 320 | 6.1 | 12.2 | 0.00 | 0.00 | 0.00 | 84 | 1011.1 |
| 20260505035441 | 54 | 324 | 7.0 | 12.2 | 0.00 | 0.00 | 0.00 | 84 | 1011.2 |
| 20260505035339 | 54 | 320 | 7.8 | 12.2 | 0.00 | 0.00 | 0.00 | 84 | 1011.2 |
| 20260505035238 | 54 | 334 | 7.8 | 12.2 | 0.00 | 0.00 | 0.00 | 84 | 1011.1 |
| 20260505035136 | 54 | 325 | 7.0 | 12.2 | 0.00 | 0.00 | 0.00 | 84 | 1011.1 |
| 20260505035036 | 54 | 334 | 6.1 | 12.2 | 0.00 | 0.00 | 0.00 | 84 | 1011.1 |
| 20260505034934 | 54 | 323 | 5.2 | 12.2 | 0.00 | 0.00 | 0.00 | 84 | 1011.1 |
| 20260505034833 | 54 | 319 | 6.1 | 12.2 | 0.00 | 0.00 | 0.00 | 84 | 1011.2 |
| 20260505034733 | 54 | 331 | 6.1 | 12.2 | 0.00 | 0.00 | 0.00 | 84 | 1011.1 |
| 20260505034632 | 54 | 333 | 5.2 | 12.2 | 0.00 | 0.00 | 0.00 | 84 | 1011.2 |
| 20260505034530 | 54 | 320 | 6.1 | 12.2 | 0.00 | 0.00 | 0.00 | 84 | 1011.2 |
| 20260505034429 | 54 | 332 | 7.0 | 10.4 | 0.00 | 0.00 | 0.00 | 84 | 1011.2 |
| 20260505034327 | 54 | 329 | 5.2 | 10.4 | 0.00 | 0.00 | 0.00 | 83 | 1011.2 |
| 20260505034226 | 54 | 332 | 5.2 | 10.4 | 0.00 | 0.00 | 0.00 | 84 | 1011.2 |
| 20260505034125 | 54 | 320 | 3.5 | 10.4 | 0.00 | 0.00 | 0.00 | 84 | 1011.2 |
| 20260505034023 | 54 | 329 | 3.5 | 9.6 | 0.00 | 0.00 | 0.00 | 83 | 1011.2 |
| 20260505033922 | 55 | 335 | 4.3 | 9.6 | 0.00 | 0.00 | 0.00 | 83 | 1011.2 |
| 20260505033820 | 55 | 320 | 3.5 | 9.6 | 0.00 | 0.00 | 0.00 | 83 | 1011.3 |
| 20260505033719 | 55 | 318 | 4.3 | 9.6 | 0.00 | 0.00 | 0.00 | 83 | 1011.3 |
| 20260505033618 | 55 | 322 | 5.2 | 9.6 | 0.00 | 0.00 | 0.00 | 83 | 1011.4 |
| 20260505033517 | 55 | 326 | 3.5 | 7.8 | 0.00 | 0.00 | 0.00 | 83 | 1011.3 |
| 20260505033415 | 55 | 324 | 3.5 | 7.8 | 0.00 | 0.00 | 0.00 | 83 | 1011.3 |
| 20260505033313 | 55 | 326 | 3.5 | 7.8 | 0.00 | 0.00 | 0.00 | 83 | 1011.4 |
| 20260505033212 | 55 | 326 | 2.6 | 7.8 | 0.00 | 0.00 | 0.00 | 83 | 1011.4 |
| 20260505033111 | 55 | 321 | 3.5 | 7.8 | 0.00 | 0.00 | 0.00 | 83 | 1011.4 |
| 20260505033010 | 55 | 329 | 3.5 | 7.8 | 0.00 | 0.00 | 0.00 | 83 | 1011.4 |
| 20260505032908 | 55 | 311 | 2.6 | 7.8 | 0.00 | 0.00 | 0.00 | 83 | 1011.4 |
| 20260505032820 | 55 | 324 | 1.7 | 7.8 | 0.00 | 0.00 | 0.00 | 82 | 1011.3 |
| 20260505032743 | 55 | 319 | 1.7 | 7.8 | 0.00 | 0.00 | 0.00 | 82 | 1011.4 |
| 20260505032605 | 55 | 310 | 1.7 | 9.6 | 0.00 | 0.00 | 0.00 | 82 | 1011.5 |
| 20260505032531 | 55 | 328 | 0.9 | 10.4 | 0.00 | 0.00 | 0.00 | 82 | 1011.4 |
| 20260505032458 | 55 | 324 | 1.7 | 10.4 | 0.00 | 0.00 | 0.00 | 82 | 1011.4 |
| 20260505032306 | 55 | 328 | 3.5 | 10.4 | 0.00 | 0.00 | 0.00 | 82 | 1011.4 |
| 20260505032154 | 55 | 328 | 2.6 | 10.4 | 0.00 | 0.00 | 0.00 | 82 | 1011.5 |
| 20260505032053 | 55 | 335 | 1.7 | 10.4 | 0.00 | 0.00 | 0.00 | 82 | 1011.4 |
| 20260505031950 | 55 | 328 | 1.7 | 10.4 | 0.00 | 0.00 | 0.00 | 82 | 1011.4 |
| 20260505031848 | 55 | 328 | 4.3 | 10.4 | 0.00 | 0.00 | 0.00 | 82 | 1011.4 |
| 20260505031747 | 55 | 324 | 7.8 | 11.3 | 0.00 | 0.00 | 0.00 | 82 | 1011.4 |
| 20260505031645 | 55 | 328 | 6.1 | 11.3 | 0.00 | 0.00 | 0.00 | 82 | 1011.5 |
| 20260505031544 | 55 | 322 | 4.3 | 11.3 | 0.00 | 0.00 | 0.00 | 81 | 1011.4 |
| 20260505031443 | 55 | 322 | 5.2 | 11.3 | 0.00 | 0.00 | 0.00 | 81 | 1011.4 |
| 20260505031346 | 55 | 327 | 6.1 | 11.3 | 0.00 | 0.00 | 0.00 | 81 | 1011.4 |
| 20260505031241 | 55 | 324 | 5.2 | 11.3 | 0.00 | 0.00 | 0.00 | 81 | 1011.4 |
| 20260505031141 | 55 | 323 | 6.1 | 12.2 | 0.00 | 0.00 | 0.00 | 81 | 1011.4 |
| 20260505031039 | 55 | 318 | 6.1 | 12.2 | 0.00 | 0.00 | 0.00 | 81 | 1011.4 |
| 20260505030938 | 55 | 319 | 7.8 | 12.2 | 0.00 | 0.00 | 0.00 | 81 | 1011.3 |
| 20260505030735 | 55 | 318 | 6.1 | 12.2 | 0.00 | 0.00 | 0.00 | 81 | 1011.4 |
| 20260505030633 | 55 | 328 | 7.0 | 12.2 | 0.00 | 0.00 | 0.00 | 81 | 1011.4 |
| 20260505030533 | 55 | 325 | 7.0 | 12.2 | 0.00 | 0.00 | 0.00 | 81 | 1011.3 |
| 20260505030432 | 55 | 322 | 6.1 | 12.2 | 0.00 | 0.00 | 0.00 | 81 | 1011.3 |
| 20260505030330 | 55 | 321 | 7.8 | 12.2 | 0.00 | 0.00 | 0.00 | 81 | 1011.4 |
| 20260505030230 | 55 | 339 | 8.7 | 12.2 | 0.00 | 0.00 | 0.00 | 81 | 1011.4 |
| 20260505030128 | 55 | 328 | 7.8 | 11.3 | 0.00 | 0.00 | 0.00 | 81 | 1011.4 |
| 20260505030027 | 55 | 318 | 7.8 | 10.4 | 0.00 | 0.00 | 0.00 | 81 | 1011.4 |
| 20260505025926 | 55 | 324 | 7.8 | 10.4 | 0.00 | 0.00 | 0.00 | 81 | 1011.5 |
| 20260505025824 | 55 | 309 | 7.8 | 11.3 | 0.00 | 0.00 | 0.00 | 81 | 1011.5 |
| 20260505025722 | 55 | 332 | 7.8 | 11.3 | 0.00 | 0.00 | 0.00 | 81 | 1011.5 |
| 20260505025622 | 55 | 328 | 7.8 | 11.3 | 0.00 | 0.00 | 0.00 | 81 | 1011.5 |
| 20260505025520 | 55 | 332 | 6.1 | 11.3 | 0.00 | 0.00 | 0.00 | 81 | 1011.5 |
| 20260505025418 | 55 | 323 | 5.2 | 11.3 | 0.00 | 0.00 | 0.00 | 81 | 1011.4 |
| 20260505025318 | 55 | 323 | 6.1 | 11.3 | 0.00 | 0.00 | 0.00 | 81 | 1011.4 |
| 20260505025217 | 55 | 326 | 7.0 | 11.3 | 0.00 | 0.00 | 0.00 | 81 | 1011.4 |
| 20260505025115 | 55 | 322 | 7.0 | 11.3 | 0.00 | 0.00 | 0.00 | 81 | 1011.5 |
| 20260505025013 | 55 | 324 | 7.0 | 11.3 | 0.00 | 0.00 | 0.00 | 81 | 1011.5 |
| 20260505024911 | 55 | 322 | 7.0 | 11.3 | 0.00 | 0.00 | 0.00 | 80 | 1011.5 |
| 20260505024811 | 55 | 328 | 7.0 | 11.3 | 0.00 | 0.00 | 0.00 | 80 | 1011.5 |
| 20260505024709 | 55 | 323 | 7.8 | 11.3 | 0.00 | 0.00 | 0.00 | 80 | 1011.5 |
| 20260505024607 | 55 | 328 | 7.8 | 11.3 | 0.00 | 0.00 | 0.00 | 80 | 1011.5 |
| 20260505024507 | 55 | 321 | 7.8 | 11.3 | 0.00 | 0.00 | 0.00 | 80 | 1011.5 |
| 20260505024406 | 55 | 316 | 7.8 | 11.3 | 0.00 | 0.00 | 0.00 | 80 | 1011.5 |
| 20260505024304 | 55 | 319 | 7.0 | 12.2 | 0.00 | 0.00 | 0.00 | 80 | 1011.5 |
| 20260505024202 | 55 | 318 | 8.7 | 12.2 | 0.00 | 0.00 | 0.00 | 80 | 1011.5 |
| 20260505024101 | 55 | 336 | 7.8 | 12.2 | 0.00 | 0.00 | 0.00 | 80 | 1011.5 |
| 20260505023959 | 55 | 318 | 6.1 | 12.2 | 0.00 | 0.00 | 0.00 | 80 | 1011.6 |
| 20260505023858 | 55 | 312 | 6.1 | 12.2 | 0.00 | 0.00 | 0.00 | 80 | 1011.5 |
| 20260505023757 | 55 | 322 | 7.0 | 12.2 | 0.00 | 0.00 | 0.00 | 80 | 1011.5 |
| 20260505023654 | 55 | 332 | 7.0 | 12.2 | 0.00 | 0.00 | 0.00 | 80 | 1011.5 |
| 20260505023555 | 55 | 322 | 7.0 | 12.2 | 0.00 | 0.00 | 0.00 | 80 | 1011.6 |
| 20260505023453 | 55 | 330 | 8.7 | 12.2 | 0.00 | 0.00 | 0.00 | 80 | 1011.6 |
| 20260505023352 | 55 | 326 | 7.8 | 12.2 | 0.00 | 0.00 | 0.00 | 80 | 1011.6 |
| 20260505023253 | 55 | 324 | 7.0 | 12.2 | 0.00 | 0.00 | 0.00 | 80 | 1011.6 |
| 20260505023145 | 55 | 339 | 7.8 | 12.2 | 0.00 | 0.00 | 0.00 | 80 | 1011.5 |
| 20260505023045 | 55 | 317 | 7.8 | 12.2 | 0.00 | 0.00 | 0.00 | 80 | 1011.6 |
| 20260505023014 | 55 | 328 | 7.0 | 12.2 | 0.00 | 0.00 | 0.00 | 80 | 1011.6 |
| 20260505022941 | 55 | 316 | 7.8 | 12.2 | 0.00 | 0.00 | 0.00 | 80 | 1011.7 |
| 20260505022749 | 55 | 331 | 7.8 | 12.2 | 0.00 | 0.00 | 0.00 | 80 | 1011.7 |
| 20260505022639 | 55 | 318 | 7.0 | 12.2 | 0.00 | 0.00 | 0.00 | 81 | 1011.7 |
| 20260505022538 | 55 | 322 | 5.2 | 11.3 | 0.00 | 0.00 | 0.00 | 81 | 1011.7 |
| 20260505022436 | 55 | 326 | 6.1 | 12.2 | 0.00 | 0.00 | 0.00 | 81 | 1011.7 |
| 20260505022340 | 55 | 330 | 7.8 | 12.2 | 0.00 | 0.00 | 0.00 | 81 | 1011.7 |
| 20260505022235 | 55 | 332 | 7.8 | 12.2 | 0.00 | 0.00 | 0.00 | 81 | 1011.7 |
| 20260505022135 | 55 | 314 | 7.8 | 12.2 | 0.00 | 0.00 | 0.00 | 81 | 1011.7 |
| 20260505022039 | 55 | 326 | 7.0 | 12.2 | 0.00 | 0.00 | 0.00 | 81 | 1011.8 |
| 20260505021930 | 55 | 316 | 6.1 | 12.2 | 0.00 | 0.00 | 0.00 | 80 | 1011.8 |
| 20260505021832 | 55 | 316 | 7.8 | 12.2 | 0.00 | 0.00 | 0.00 | 80 | 1011.8 |
| 20260505021732 | 55 | 322 | 7.0 | 12.2 | 0.00 | 0.00 | 0.00 | 80 | 1011.8 |
| 20260505021630 | 55 | 319 | 7.0 | 12.2 | 0.00 | 0.00 | 0.00 | 80 | 1011.7 |
| 20260505021525 | 55 | 325 | 6.1 | 12.2 | 0.00 | 0.00 | 0.00 | 80 | 1011.7 |
| 20260505021427 | 55 | 325 | 5.2 | 11.3 | 0.00 | 0.00 | 0.00 | 80 | 1011.8 |
| 20260505021328 | 56 | 318 | 6.1 | 11.3 | 0.00 | 0.00 | 0.00 | 80 | 1011.8 |
| 20260505021223 | 56 | 326 | 7.0 | 11.3 | 0.00 | 0.00 | 0.00 | 80 | 1011.8 |
| 20260505021123 | 56 | 320 | 7.0 | 11.3 | 0.00 | 0.00 | 0.00 | 80 | 1011.8 |
| 20260505021021 | 56 | 314 | 6.1 | 11.3 | 0.00 | 0.00 | 0.00 | 80 | 1011.8 |
| 20260505020921 | 56 | 323 | 5.2 | 11.3 | 0.00 | 0.00 | 0.00 | 80 | 1011.8 |
| 20260505020719 | 56 | 320 | 7.8 | 11.3 | 0.00 | 0.00 | 0.00 | 80 | 1011.9 |
| 20260505020616 | 56 | 311 | 7.0 | 11.3 | 0.00 | 0.00 | 0.00 | 80 | 1011.9 |
| 20260505020516 | 56 | 324 | 7.0 | 10.4 | 0.00 | 0.00 | 0.00 | 80 | 1011.9 |
| 20260505020414 | 56 | 321 | 7.0 | 10.4 | 0.00 | 0.00 | 0.00 | 80 | 1012.0 |
| 20260505020312 | 56 | 320 | 6.1 | 10.4 | 0.00 | 0.00 | 0.00 | 80 | 1012.0 |
| 20260505020212 | 56 | 313 | 7.0 | 10.4 | 0.00 | 0.00 | 0.00 | 80 | 1011.9 |
| 20260505020111 | 56 | 336 | 5.2 | 10.4 | 0.00 | 0.00 | 0.00 | 80 | 1012.0 |
| 20260505020020 | 56 | 318 | 3.5 | 9.6 | 0.00 | 0.00 | 0.00 | 80 | 1012.0 |
| 20260505015944 | 56 | 293 | 3.5 | 9.6 | 0.00 | 0.00 | 0.00 | 80 | 1012.0 |
| 20260505015806 | 56 | 318 | 4.3 | 9.6 | 0.00 | 0.00 | 0.00 | 80 | 1012.0 |
| 20260505015706 | 56 | 320 | 3.5 | 9.6 | 0.00 | 0.00 | 0.00 | 80 | 1012.0 |
| 20260505015604 | 56 | 315 | 3.5 | 9.6 | 0.00 | 0.00 | 0.00 | 80 | 1012.0 |
| 20260505015503 | 56 | 294 | 5.2 | 9.6 | 0.00 | 0.00 | 0.00 | 80 | 1012.0 |
| 20260505015402 | 56 | 322 | 5.2 | 9.6 | 0.00 | 0.00 | 0.00 | 80 | 1012.0 |
| 20260505015300 | 56 | 328 | 4.3 | 9.6 | 0.00 | 0.00 | 0.00 | 80 | 1012.0 |
| 20260505015158 | 56 | 312 | 4.3 | 9.6 | 0.00 | 0.00 | 0.00 | 80 | 1011.9 |
| 20260505015057 | 56 | 325 | 5.2 | 9.6 | 0.00 | 0.00 | 0.00 | 80 | 1011.9 |
| 20260505014957 | 56 | 312 | 7.0 | 9.6 | 0.00 | 0.00 | 0.00 | 80 | 1011.8 |
| 20260505014855 | 56 | 314 | 7.0 | 9.6 | 0.00 | 0.00 | 0.00 | 80 | 1011.8 |
| 20260505014751 | 56 | 312 | 6.1 | 9.6 | 0.00 | 0.00 | 0.00 | 80 | 1011.9 |
| 20260505014652 | 56 | 323 | 7.0 | 9.6 | 0.00 | 0.00 | 0.00 | 80 | 1011.9 |
| 20260505014550 | 56 | 324 | 7.8 | 9.6 | 0.00 | 0.00 | 0.00 | 80 | 1011.8 |
| 20260505014446 | 56 | 328 | 6.1 | 9.6 | 0.00 | 0.00 | 0.00 | 80 | 1011.9 |
| 20260505014349 | 56 | 310 | 6.1 | 8.7 | 0.00 | 0.00 | 0.00 | 80 | 1011.8 |
| 20260505014248 | 56 | 318 | 5.2 | 7.8 | 0.00 | 0.00 | 0.00 | 80 | 1011.9 |
| 20260505014144 | 56 | 324 | 3.5 | 7.8 | 0.00 | 0.00 | 0.00 | 80 | 1011.8 |
| 20260505014042 | 56 | 327 | 2.6 | 7.8 | 0.00 | 0.00 | 0.00 | 80 | 1011.9 |
| 20260505013942 | 56 | 326 | 3.5 | 7.8 | 0.00 | 0.00 | 0.00 | 80 | 1012.0 |
| 20260505013838 | 57 | 324 | 3.5 | 7.8 | 0.00 | 0.00 | 0.00 | 79 | 1012.0 |
| 20260505013737 | 57 | 330 | 1.7 | 7.0 | 0.00 | 0.00 | 0.00 | 79 | 1012.0 |
| 20260505013639 | 57 | 316 | 1.7 | 5.2 | 0.00 | 0.00 | 0.00 | 79 | 1012.2 |
| 20260505013534 | 57 | 296 | 1.7 | 5.2 | 0.00 | 0.00 | 0.00 | 79 | 1012.2 |
| 20260505013432 | 57 | 295 | 1.7 | 5.2 | 0.00 | 0.00 | 0.00 | 79 | 1012.2 |
| 20260505013336 | 57 | 309 | 0.9 | 5.2 | 0.00 | 0.00 | 0.00 | 79 | 1012.2 |
| 20260505013245 | 57 | 326 | 1.7 | 5.2 | 0.00 | 0.00 | 0.00 | 79 | 1012.2 |
| 20260505013134 | 57 | 326 | 1.7 | 5.2 | 0.00 | 0.00 | 0.00 | 79 | 1012.2 |
| 20260505013032 | 57 | 326 | 1.7 | 5.2 | 0.00 | 0.00 | 0.00 | 78 | 1012.2 |
| 20260505012931 | 57 | 318 | 0.0 | 3.5 | 0.00 | 0.00 | 0.00 | 78 | 1012.2 |
| 20260505012829 | 57 | 291 | 0.0 | 3.5 | 0.00 | 0.00 | 0.00 | 78 | 1012.1 |
| 20260505012730 | 57 | 314 | 0.9 | 3.5 | 0.00 | 0.00 | 0.00 | 78 | 1012.1 |
| 20260505012626 | 57 | 314 | 1.7 | 3.5 | 0.00 | 0.00 | 0.00 | 78 | 1012.2 |
| 20260505012524 | 57 | 310 | 0.9 | 3.5 | 0.00 | 0.00 | 0.00 | 78 | 1012.2 |
| 20260505012423 | 57 | 325 | 0.0 | 1.7 | 0.00 | 0.00 | 0.00 | 77 | 1012.2 |
| 20260505012219 | 57 | 325 | 0.0 | 1.7 | 0.00 | 0.00 | 0.00 | 77 | 1012.2 |
| 20260505012116 | 57 | 325 | 0.0 | 1.7 | 0.00 | 0.00 | 0.00 | 77 | 1012.3 |
| 20260505012016 | 57 | 325 | 0.0 | 0.9 | 0.00 | 0.00 | 0.00 | 77 | 1012.3 |
| 20260505011945 | 57 | 325 | 0.0 | 0.9 | 0.00 | 0.00 | 0.00 | 77 | 1012.3 |
| 20260505011915 | 57 | 325 | 0.0 | 0.9 | 0.00 | 0.00 | 0.00 | 77 | 1012.3 |
| 20260505011711 | 57 | 325 | 0.0 | 2.6 | 0.00 | 0.00 | 0.00 | 77 | 1012.3 |
| 20260505011613 | 57 | 325 | 0.0 | 2.6 | 0.00 | 0.00 | 0.00 | 77 | 1012.3 |
| 20260505011512 | 57 | 325 | 0.0 | 2.6 | 0.00 | 0.00 | 0.00 | 77 | 1012.3 |
| 20260505011411 | 57 | 325 | 0.0 | 3.5 | 0.00 | 0.00 | 0.00 | 77 | 1012.3 |
| 20260505011209 | 57 | 325 | 0.0 | 7.0 | 0.00 | 0.00 | 0.00 | 77 | 1012.3 |
| 20260505011108 | 57 | 325 | 0.0 | 7.0 | 0.00 | 0.00 | 0.00 | 77 | 1012.3 |
| 20260505011006 | 57 | 325 | 0.0 | 7.0 | 0.00 | 0.00 | 0.00 | 77 | 1012.3 |
| 20260505010906 | 57 | 325 | 0.9 | 7.0 | 0.00 | 0.00 | 0.00 | 77 | 1012.3 |
| 20260505010657 | 57 | 325 | 0.0 | 8.7 | 0.00 | 0.00 | 0.00 | 77 | 1012.2 |
| 20260505010551 | 57 | 324 | 0.9 | 8.7 | 0.00 | 0.00 | 0.00 | 77 | 1012.2 |
| 20260505010450 | 57 | 328 | 1.7 | 8.7 | 0.00 | 0.00 | 0.00 | 77 | 1012.3 |
| 20260505010347 | 57 | 328 | 3.5 | 8.7 | 0.00 | 0.00 | 0.00 | 77 | 1012.2 |
| 20260505010247 | 57 | 324 | 2.6 | 8.7 | 0.00 | 0.00 | 0.00 | 77 | 1012.2 |
| 20260505010146 | 57 | 316 | 3.5 | 8.7 | 0.00 | 0.00 | 0.00 | 77 | 1012.2 |
| 20260505010053 | 57 | 329 | 4.3 | 8.7 | 0.00 | 0.00 | 0.00 | 77 | 1012.2 |
| 20260505005944 | 57 | 324 | 4.3 | 8.7 | 0.00 | 0.00 | 0.00 | 77 | 1012.2 |
| 20260505005844 | 57 | 323 | 3.5 | 8.7 | 0.00 | 0.00 | 0.00 | 77 | 1012.2 |
| 20260505005742 | 57 | 317 | 3.5 | 7.8 | 0.00 | 0.00 | 0.00 | 77 | 1012.2 |
| 20260505005640 | 57 | 326 | 2.6 | 7.8 | 0.00 | 0.00 | 0.00 | 77 | 1012.2 |
| 20260505005539 | 57 | 326 | 2.6 | 7.0 | 0.00 | 0.00 | 0.00 | 77 | 1012.2 |
| 20260505005437 | 57 | 316 | 2.6 | 7.0 | 0.00 | 0.00 | 0.00 | 77 | 1012.2 |
| 20260505005336 | 57 | 309 | 1.7 | 6.1 | 0.00 | 0.00 | 0.00 | 77 | 1012.3 |
| 20260505005235 | 57 | 304 | 1.7 | 6.1 | 0.00 | 0.00 | 0.00 | 77 | 1012.2 |
| 20260505005135 | 57 | 328 | 1.7 | 8.7 | 0.00 | 0.00 | 0.00 | 77 | 1012.3 |
| 20260505005034 | 58 | 332 | 0.9 | 8.7 | 0.00 | 0.00 | 0.00 | 77 | 1012.3 |
| 20260505004932 | 57 | 318 | 0.0 | 8.7 | 0.00 | 0.00 | 0.00 | 76 | 1012.4 |
| 20260505004830 | 58 | 318 | 1.7 | 8.7 | 0.00 | 0.00 | 0.00 | 76 | 1012.3 |
| 20260505004724 | 57 | 310 | 3.5 | 8.7 | 0.00 | 0.00 | 0.00 | 76 | 1012.4 |
| 20260505004618 | 58 | 322 | 2.6 | 8.7 | 0.00 | 0.00 | 0.00 | 76 | 1012.4 |
| 20260505004520 | 58 | 321 | 1.7 | 9.6 | 0.00 | 0.00 | 0.00 | 76 | 1012.4 |
| 20260505004417 | 58 | 323 | 2.6 | 9.6 | 0.00 | 0.00 | 0.00 | 76 | 1012.3 |
| 20260505004314 | 58 | 324 | 5.2 | 9.6 | 0.00 | 0.00 | 0.00 | 76 | 1012.3 |
| 20260505004213 | 58 | 328 | 6.1 | 9.6 | 0.00 | 0.00 | 0.00 | 76 | 1012.3 |
| 20260505004113 | 58 | 339 | 4.3 | 9.6 | 0.00 | 0.00 | 0.00 | 76 | 1012.3 |
| 20260505004011 | 58 | 316 | 4.3 | 10.4 | 0.00 | 0.00 | 0.00 | 76 | 1012.3 |
| 20260505003909 | 58 | 326 | 4.3 | 10.4 | 0.00 | 0.00 | 0.00 | 76 | 1012.3 |
| 20260505003808 | 58 | 323 | 4.3 | 10.4 | 0.00 | 0.00 | 0.00 | 76 | 1012.3 |
| 20260505003707 | 58 | 328 | 5.2 | 10.4 | 0.00 | 0.00 | 0.00 | 76 | 1012.3 |
| 20260505003605 | 58 | 330 | 6.1 | 10.4 | 0.00 | 0.00 | 0.00 | 76 | 1012.2 |
| 20260505003505 | 58 | 326 | 5.2 | 10.4 | 0.00 | 0.00 | 0.00 | 76 | 1012.3 |
| 20260505003403 | 58 | 327 | 5.2 | 10.4 | 0.00 | 0.00 | 0.00 | 76 | 1012.3 |
| 20260505003303 | 58 | 322 | 6.1 | 10.4 | 0.00 | 0.00 | 0.00 | 75 | 1012.3 |
| 20260505003201 | 58 | 323 | 7.0 | 10.4 | 0.00 | 0.00 | 0.00 | 75 | 1012.3 |
| 20260505003059 | 58 | 326 | 5.2 | 10.4 | 0.00 | 0.00 | 0.00 | 75 | 1012.3 |
| 20260505002958 | 58 | 326 | 5.2 | 10.4 | 0.00 | 0.00 | 0.00 | 75 | 1012.3 |
| 20260505002857 | 58 | 331 | 6.1 | 10.4 | 0.00 | 0.00 | 0.00 | 75 | 1012.3 |
| 20260505002654 | 58 | 331 | 5.2 | 10.4 | 0.00 | 0.00 | 0.00 | 75 | 1012.4 |
| 20260505002553 | 58 | 328 | 7.0 | 10.4 | 0.00 | 0.00 | 0.00 | 75 | 1012.3 |
| 20260505002452 | 58 | 324 | 7.8 | 10.4 | 0.00 | 0.00 | 0.00 | 75 | 1012.4 |
| 20260505002349 | 58 | 325 | 6.1 | 10.4 | 0.00 | 0.00 | 0.00 | 75 | 1012.4 |
| 20260505002247 | 58 | 317 | 5.2 | 10.4 | 0.00 | 0.00 | 0.00 | 75 | 1012.4 |
| 20260505002145 | 58 | 330 | 6.1 | 10.4 | 0.00 | 0.00 | 0.00 | 75 | 1012.3 |
| 20260505002044 | 58 | 322 | 6.1 | 10.4 | 0.00 | 0.00 | 0.00 | 75 | 1012.3 |
| 20260505001943 | 58 | 312 | 5.2 | 10.4 | 0.00 | 0.00 | 0.00 | 75 | 1012.4 |
| 20260505001842 | 58 | 323 | 5.2 | 10.4 | 0.00 | 0.00 | 0.00 | 75 | 1012.4 |
| 20260505001741 | 58 | 326 | 5.2 | 10.4 | 0.00 | 0.00 | 0.00 | 75 | 1012.4 |
| 20260505001640 | 58 | 326 | 4.3 | 10.4 | 0.00 | 0.00 | 0.00 | 75 | 1012.4 |
| 20260505001538 | 58 | 328 | 5.2 | 10.4 | 0.00 | 0.00 | 0.00 | 75 | 1012.5 |
| 20260505001437 | 58 | 326 | 4.3 | 9.6 | 0.00 | 0.00 | 0.00 | 75 | 1012.5 |
| 20260505001336 | 58 | 327 | 4.3 | 9.6 | 0.00 | 0.00 | 0.00 | 75 | 1012.5 |
| 20260505001235 | 58 | 324 | 4.3 | 8.7 | 0.00 | 0.00 | 0.00 | 75 | 1012.6 |
| 20260505001132 | 58 | 312 | 4.3 | 8.7 | 0.00 | 0.00 | 0.00 | 75 | 1012.5 |
| 20260505001031 | 58 | 336 | 4.3 | 8.7 | 0.00 | 0.00 | 0.00 | 75 | 1012.6 |
| 20260505000930 | 58 | 334 | 4.3 | 8.7 | 0.00 | 0.00 | 0.00 | 75 | 1012.5 |
| 20260505000830 | 58 | 334 | 5.2 | 8.7 | 0.00 | 0.00 | 0.00 | 75 | 1012.6 |
| 20260505000729 | 58 | 328 | 5.2 | 8.7 | 0.00 | 0.00 | 0.00 | 75 | 1012.6 |
| 20260505000627 | 58 | 324 | 3.5 | 8.7 | 0.00 | 0.00 | 0.00 | 75 | 1012.6 |
| 20260505000526 | 58 | 329 | 3.5 | 7.8 | 0.00 | 0.00 | 0.00 | 75 | 1012.6 |
| 20260505000425 | 58 | 337 | 3.5 | 7.0 | 0.00 | 0.00 | 0.00 | 75 | 1012.6 |
| 20260505000325 | 58 | 330 | 3.5 | 7.0 | 0.00 | 0.00 | 0.00 | 75 | 1012.7 |
| 20260505000226 | 58 | 330 | 2.6 | 7.0 | 0.00 | 0.00 | 0.00 | 75 | 1012.6 |
| 20260505000121 | 58 | 324 | 2.6 | 7.0 | 0.00 | 0.00 | 0.00 | 75 | 1012.7 |
| 20260505000019 | 58 | 326 | 2.6 | 7.0 | 0.00 | 0.00 | 0.00 | 75 | 1012.7 |
| 20260504235917 | 58 | 326 | 1.7 | 7.0 | 0.00 | 0.00 | 0.00 | 75 | 1012.8 |
| 20260504235817 | 58 | 330 | 2.6 | 7.0 | 0.00 | 0.00 | 0.00 | 75 | 1012.8 |
| 20260504235714 | 58 | 329 | 1.7 | 7.0 | 0.00 | 0.00 | 0.00 | 75 | 1012.7 |
| 20260504235613 | 58 | 328 | 0.9 | 6.1 | 0.00 | 0.00 | 0.00 | 75 | 1012.7 |
| 20260504235512 | 58 | 328 | 0.9 | 6.1 | 0.00 | 0.00 | 0.00 | 75 | 1012.8 |
| 20260504235412 | 58 | 324 | 1.7 | 6.1 | 0.00 | 0.00 | 0.00 | 75 | 1012.8 |
| 20260504235310 | 58 | 328 | 0.9 | 6.1 | 0.00 | 0.00 | 0.00 | 74 | 1012.8 |
| 20260504235212 | 58 | 320 | 0.9 | 6.1 | 0.00 | 0.00 | 0.00 | 75 | 1012.8 |
| 20260504235109 | 58 | 316 | 2.6 | 6.1 | 0.00 | 0.00 | 0.00 | 75 | 1012.7 |
| 20260504235009 | 58 | 336 | 3.5 | 6.1 | 0.00 | 0.00 | 0.00 | 74 | 1012.8 |
| 20260504234932 | 58 | 328 | 2.6 | 6.1 | 0.00 | 0.00 | 0.00 | 74 | 1012.8 |
| 20260504234859 | 58 | 319 | 1.7 | 6.1 | 0.00 | 0.00 | 0.00 | 74 | 1012.7 |
| 20260504234704 | 58 | 324 | 1.7 | 4.3 | 0.00 | 0.00 | 0.00 | 74 | 1012.8 |
| 20260504234602 | 58 | 328 | 0.9 | 4.3 | 0.00 | 0.00 | 0.00 | 74 | 1012.8 |
| 20260504234501 | 58 | 319 | 0.9 | 3.5 | 0.00 | 0.00 | 0.00 | 74 | 1012.8 |
| 20260504234400 | 58 | 309 | 0.0 | 2.6 | 0.00 | 0.00 | 0.00 | 74 | 1012.8 |
| 20260504234259 | 58 | 305 | 0.0 | 2.6 | 0.00 | 0.00 | 0.00 | 74 | 1012.8 |
| 20260504234202 | 58 | 249 | 0.0 | 2.6 | 0.00 | 0.00 | 0.00 | 73 | 1012.8 |
| 20260504234056 | 58 | 249 | 0.0 | 2.6 | 0.00 | 0.00 | 0.00 | 73 | 1012.8 |
| 20260504233943 | 58 | 249 | 0.9 | 2.6 | 0.00 | 0.00 | 0.00 | 73 | 1012.8 |
| 20260504233842 | 58 | 249 | 0.9 | 2.6 | 0.00 | 0.00 | 0.00 | 73 | 1012.9 |
| 20260504233640 | 58 | 272 | 0.9 | 2.6 | 0.00 | 0.00 | 0.00 | 73 | 1012.8 |
| 20260504233538 | 58 | 220 | 0.0 | 2.6 | 0.00 | 0.00 | 0.00 | 74 | 1012.8 |
| 20260504233438 | 58 | 274 | 0.0 | 2.6 | 0.00 | 0.00 | 0.00 | 74 | 1012.9 |
| 20260504233332 | 58 | 274 | 1.7 | 2.6 | 0.00 | 0.00 | 0.00 | 74 | 1012.8 |
| 20260504233230 | 58 | 274 | 0.9 | 2.6 | 0.00 | 0.00 | 0.00 | 74 | 1012.8 |
| 20260504233143 | 58 | 255 | 0.0 | 1.7 | 0.00 | 0.00 | 0.00 | 74 | 1012.8 |
| 20260504233113 | 58 | 317 | 0.0 | 1.7 | 0.00 | 0.00 | 0.00 | 74 | 1012.8 |
| 20260504232935 | 58 | 312 | 0.0 | 0.9 | 0.00 | 0.00 | 0.00 | 74 | 1012.9 |
| 20260504232900 | 58 | 312 | 0.0 | 0.9 | 0.00 | 0.00 | 0.00 | 74 | 1012.9 |
| 20260504232719 | 58 | 311 | 0.0 | 0.9 | 0.00 | 0.00 | 0.00 | 73 | 1012.9 |
| 20260504232620 | 58 | 308 | 0.0 | 0.9 | 0.00 | 0.00 | 0.00 | 73 | 1012.9 |
| 20260504232514 | 58 | 308 | 0.0 | 0.9 | 0.00 | 0.00 | 0.00 | 73 | 1012.9 |
| 20260504232414 | 58 | 308 | 0.0 | 0.9 | 0.00 | 0.00 | 0.00 | 73 | 1012.9 |
| 20260504232322 | 58 | 308 | 0.0 | 0.9 | 0.00 | 0.00 | 0.00 | 73 | 1012.9 |
| 20260504232211 | 58 | 308 | 0.0 | 0.9 | 0.00 | 0.00 | 0.00 | 73 | 1012.9 |
| 20260504232111 | 59 | 307 | 0.0 | 0.9 | 0.00 | 0.00 | 0.00 | 73 | 1012.9 |
| 20260504232008 | 58 | 307 | 0.0 | 0.9 | 0.00 | 0.00 | 0.00 | 73 | 1012.9 |
| 20260504231908 | 58 | 307 | 0.0 | 0.9 | 0.00 | 0.00 | 0.00 | 73 | 1012.9 |
| 20260504231807 | 59 | 307 | 0.0 | 0.9 | 0.00 | 0.00 | 0.00 | 73 | 1012.9 |
| 20260504231709 | 58 | 307 | 0.0 | 0.9 | 0.00 | 0.00 | 0.00 | 73 | 1012.9 |
| 20260504231605 | 58 | 307 | 0.0 | 0.9 | 0.00 | 0.00 | 0.00 | 72 | 1012.9 |
| 20260504231511 | 59 | 307 | 0.0 | 0.9 | 0.00 | 0.00 | 0.00 | 72 | 1012.9 |
| 20260504231403 | 58 | 307 | 0.0 | 0.9 | 0.00 | 0.00 | 0.00 | 72 | 1012.9 |
| 20260504231300 | 58 | 307 | 0.0 | 1.7 | 0.00 | 0.00 | 0.00 | 72 | 1013.0 |
| 20260504231201 | 58 | 307 | 0.0 | 1.7 | 0.00 | 0.00 | 0.00 | 72 | 1012.9 |
| 20260504231101 | 58 | 307 | 0.0 | 1.7 | 0.00 | 0.00 | 0.00 | 72 | 1013.0 |
| 20260504230951 | 58 | 307 | 0.0 | 2.6 | 0.00 | 0.00 | 0.00 | 72 | 1012.9 |
| 20260504230849 | 58 | 307 | 0.0 | 2.6 | 0.00 | 0.00 | 0.00 | 73 | 1013.0 |
| 20260504230749 | 58 | 307 | 0.0 | 2.6 | 0.00 | 0.00 | 0.00 | 73 | 1013.0 |
| 20260504230648 | 58 | 307 | 0.0 | 2.6 | 0.00 | 0.00 | 0.00 | 73 | 1013.0 |
| 20260504230542 | 58 | 307 | 0.0 | 2.6 | 0.00 | 0.00 | 0.00 | 73 | 1013.0 |
| 20260504230448 | 59 | 307 | 0.9 | 2.6 | 0.00 | 0.00 | 0.00 | 73 | 1013.1 |
| 20260504230339 | 58 | 321 | 0.0 | 2.6 | 0.00 | 0.00 | 0.00 | 73 | 1013.1 |
| 20260504230138 | 59 | 321 | 0.9 | 2.6 | 0.00 | 0.00 | 0.00 | 73 | 1013.1 |
| 20260504230037 | 59 | 321 | 0.9 | 2.6 | 0.00 | 0.00 | 0.00 | 73 | 1013.1 |
| 20260504225935 | 59 | 322 | 0.9 | 2.6 | 0.00 | 0.00 | 0.00 | 73 | 1013.1 |
| 20260504225857 | 59 | 301 | 0.0 | 2.6 | 0.00 | 0.00 | 0.00 | 73 | 1013.1 |
| 20260504225824 | 59 | 301 | 0.0 | 2.6 | 0.00 | 0.00 | 0.00 | 73 | 1013.1 |
| 20260504225621 | 59 | 301 | 0.9 | 2.6 | 0.00 | 0.00 | 0.00 | 73 | 1013.1 |
| 20260504225519 | 59 | 301 | 0.0 | 2.6 | 0.00 | 0.00 | 0.00 | 73 | 1013.1 |
| 20260504225425 | 59 | 304 | 0.0 | 2.6 | 0.00 | 0.00 | 0.00 | 73 | 1013.1 |
| 20260504225354 | 59 | 304 | 0.0 | 2.6 | 0.00 | 0.00 | 0.00 | 73 | 1013.1 |
| 20260504225320 | 59 | 304 | 0.0 | 2.6 | 0.00 | 0.00 | 0.00 | 73 | 1013.1 |
| 20260504225113 | 59 | 304 | 0.0 | 2.6 | 0.00 | 0.00 | 0.00 | 73 | 1013.1 |
| 20260504225014 | 59 | 345 | 0.0 | 2.6 | 0.00 | 0.00 | 0.00 | 73 | 1013.1 |
| 20260504224919 | 59 | 345 | 0.9 | 2.6 | 0.00 | 0.00 | 0.00 | 72 | 1013.1 |
| 20260504224846 | 59 | 359 | 0.0 | 1.7 | 0.00 | 0.00 | 0.00 | 72 | 1013.1 |
| 20260504224814 | 59 | 359 | 0.0 | 1.7 | 0.00 | 0.00 | 0.00 | 72 | 1013.2 |
| 20260504224607 | 59 | 359 | 0.0 | 1.7 | 0.00 | 0.00 | 0.00 | 72 | 1013.2 |
| 20260504224506 | 59 | 359 | 0.0 | 1.7 | 0.00 | 0.00 | 0.00 | 72 | 1013.2 |
| 20260504224403 | 59 | 359 | 0.0 | 2.6 | 0.00 | 0.00 | 0.00 | 71 | 1013.2 |
| 20260504224303 | 59 | 359 | 0.0 | 2.6 | 0.00 | 0.00 | 0.00 | 71 | 1013.2 |
| 20260504224203 | 59 | 359 | 0.0 | 2.6 | 0.00 | 0.00 | 0.00 | 71 | 1013.2 |
| 20260504224103 | 59 | 359 | 0.0 | 2.6 | 0.00 | 0.00 | 0.00 | 71 | 1013.2 |
| 20260504223959 | 59 | 323 | 0.0 | 2.6 | 0.00 | 0.00 | 0.00 | 71 | 1013.2 |
| 20260504223857 | 59 | 323 | 0.0 | 3.5 | 0.00 | 0.00 | 0.00 | 71 | 1013.3 |
| 20260504223757 | 60 | 323 | 0.0 | 5.2 | 0.00 | 0.00 | 0.00 | 71 | 1013.2 |
| 20260504223657 | 60 | 323 | 0.9 | 6.1 | 0.00 | 0.00 | 0.00 | 71 | 1013.2 |
| 20260504223557 | 60 | 323 | 0.9 | 6.1 | 0.00 | 0.00 | 0.00 | 71 | 1013.3 |
| 20260504223444 | 60 | 322 | 0.9 | 6.1 | 0.00 | 0.00 | 0.00 | 70 | 1013.2 |
| 20260504223356 | 60 | 320 | 0.9 | 6.1 | 0.00 | 0.00 | 0.00 | 70 | 1013.2 |
| 20260504223324 | 60 | 320 | 0.9 | 6.1 | 0.00 | 0.00 | 0.00 | 70 | 1013.2 |
| 20260504223140 | 60 | 285 | 0.9 | 6.1 | 0.00 | 0.00 | 0.00 | 70 | 1013.2 |
| 20260504223038 | 60 | 285 | 2.6 | 6.1 | 0.00 | 0.00 | 0.00 | 70 | 1013.2 |
| 20260504222938 | 60 | 285 | 3.5 | 6.1 | 0.00 | 0.00 | 0.00 | 70 | 1013.2 |
| 20260504222836 | 60 | 318 | 2.6 | 6.1 | 0.00 | 0.00 | 0.00 | 70 | 1013.2 |
| 20260504222734 | 60 | 316 | 1.7 | 5.2 | 0.00 | 0.00 | 0.00 | 70 | 1013.2 |
| 20260504222638 | 60 | 295 | 0.9 | 5.2 | 0.00 | 0.00 | 0.00 | 69 | 1013.2 |
| 20260504222532 | 60 | 328 | 0.9 | 5.2 | 0.00 | 0.00 | 0.00 | 69 | 1013.2 |
| 20260504222431 | 60 | 342 | 0.9 | 5.2 | 0.00 | 0.00 | 0.00 | 69 | 1013.2 |
| 20260504222352 | 60 | 342 | 0.9 | 5.2 | 0.00 | 0.00 | 0.00 | 69 | 1013.2 |
| 20260504222319 | 60 | 343 | 1.7 | 5.2 | 0.00 | 0.00 | 0.00 | 69 | 1013.3 |
| 20260504222127 | 60 | 296 | 2.6 | 5.2 | 0.00 | 0.00 | 0.00 | 69 | 1013.2 |
| 20260504222025 | 60 | 264 | 1.7 | 5.2 | 0.00 | 0.00 | 0.00 | 69 | 1013.2 |
| 20260504221924 | 60 | 304 | 0.0 | 5.2 | 0.00 | 0.00 | 0.00 | 69 | 1013.3 |
| 20260504221846 | 60 | 318 | 0.0 | 2.6 | 0.00 | 0.00 | 0.00 | 69 | 1013.2 |
| 20260504221817 | 60 | 318 | 0.0 | 2.6 | 0.00 | 0.00 | 0.00 | 69 | 1013.2 |
| 20260504221622 | 60 | 318 | 0.0 | 2.6 | 0.00 | 0.00 | 0.00 | 69 | 1013.2 |
| 20260504221521 | 60 | 318 | 0.0 | 2.6 | 0.00 | 0.00 | 0.00 | 69 | 1013.2 |
| 20260504221419 | 60 | 318 | 0.0 | 2.6 | 0.00 | 0.00 | 0.00 | 69 | 1013.3 |
| 20260504221312 | 60 | 318 | 0.0 | 2.6 | 0.00 | 0.00 | 0.00 | 69 | 1013.2 |
| 20260504221212 | 60 | 318 | 0.0 | 3.5 | 0.00 | 0.00 | 0.00 | 68 | 1013.3 |
| 20260504221108 | 60 | 318 | 0.0 | 3.5 | 0.00 | 0.00 | 0.00 | 68 | 1013.3 |
| 20260504221009 | 60 | 318 | 0.0 | 3.5 | 0.00 | 0.00 | 0.00 | 68 | 1013.3 |
| 20260504220908 | 60 | 318 | 0.0 | 3.5 | 0.00 | 0.00 | 0.00 | 68 | 1013.3 |
| 20260504220801 | 60 | 318 | 0.0 | 6.1 | 0.00 | 0.00 | 0.00 | 68 | 1013.3 |
| 20260504220558 | 60 | 318 | 0.0 | 6.1 | 0.00 | 0.00 | 0.00 | 68 | 1013.3 |
| 20260504220456 | 60 | 318 | 0.9 | 6.1 | 0.00 | 0.00 | 0.00 | 68 | 1013.3 |
| 20260504220349 | 60 | 318 | 0.9 | 6.1 | 0.00 | 0.00 | 0.00 | 67 | 1013.3 |
| 20260504220248 | 60 | 320 | 0.9 | 6.1 | 0.00 | 0.00 | 0.00 | 67 | 1013.3 |
| 20260504220151 | 60 | 330 | 0.9 | 6.1 | 0.00 | 0.00 | 0.00 | 67 | 1013.3 |
| 20260504220045 | 60 | 328 | 0.9 | 6.1 | 0.00 | 0.00 | 0.00 | 67 | 1013.3 |
| 20260504215944 | 60 | 327 | 1.7 | 7.0 | 0.00 | 0.00 | 0.00 | 66 | 1013.3 |
| 20260504215843 | 60 | 327 | 1.7 | 7.0 | 0.00 | 0.00 | 0.00 | 66 | 1013.3 |
| 20260504215741 | 60 | 327 | 1.7 | 7.0 | 0.00 | 0.00 | 0.00 | 66 | 1013.4 |
| 20260504215640 | 60 | 317 | 0.9 | 7.0 | 0.00 | 0.00 | 0.00 | 66 | 1013.3 |
| 20260504215540 | 60 | 288 | 0.9 | 7.0 | 0.00 | 0.00 | 0.00 | 65 | 1013.4 |
| 20260504215437 | 60 | 287 | 0.0 | 7.0 | 0.00 | 0.00 | 0.00 | 64 | 1013.3 |
| 20260504215338 | 60 | 316 | 0.9 | 7.0 | 0.00 | 0.00 | 0.00 | 64 | 1013.4 |
| 20260504215235 | 60 | 316 | 2.6 | 7.0 | 0.00 | 0.00 | 0.00 | 64 | 1013.3 |
| 20260504215133 | 60 | 330 | 2.6 | 7.0 | 0.00 | 0.00 | 0.00 | 64 | 1013.2 |
| 20260504215032 | 60 | 316 | 1.7 | 5.2 | 0.00 | 0.00 | 0.00 | 63 | 1013.3 |
| 20260504214931 | 60 | 303 | 1.7 | 5.2 | 0.00 | 0.00 | 0.00 | 63 | 1013.3 |
| 20260504214830 | 60 | 335 | 0.9 | 3.5 | 0.00 | 0.00 | 0.00 | 63 | 1013.4 |
| 20260504214728 | 60 | 316 | 0.9 | 3.5 | 0.00 | 0.00 | 0.00 | 62 | 1013.3 |
| 20260504214629 | 60 | 330 | 0.9 | 3.5 | 0.00 | 0.00 | 0.00 | 62 | 1013.4 |
| 20260504214527 | 60 | 330 | 0.9 | 3.5 | 0.00 | 0.00 | 0.00 | 62 | 1013.4 |
| 20260504214425 | 60 | 330 | 1.7 | 3.5 | 0.00 | 0.00 | 0.00 | 62 | 1013.3 |
| 20260504214324 | 60 | 330 | 0.9 | 3.5 | 0.00 | 0.00 | 0.00 | 62 | 1013.4 |
| 20260504214218 | 60 | 333 | 0.0 | 1.7 | 0.00 | 0.00 | 0.00 | 62 | 1013.4 |
| 20260504214113 | 60 | 13 | 0.0 | 3.5 | 0.00 | 0.00 | 0.00 | 61 | 1013.3 |
| 20260504214012 | 60 | 13 | 0.0 | 3.5 | 0.00 | 0.00 | 0.00 | 61 | 1013.3 |
| 20260504213911 | 60 | 13 | 0.0 | 3.5 | 0.00 | 0.00 | 0.00 | 61 | 1013.4 |
| 20260504213810 | 60 | 13 | 0.0 | 3.5 | 0.00 | 0.00 | 0.00 | 61 | 1013.4 |
| 20260504213707 | 60 | 13 | 0.0 | 3.5 | 0.00 | 0.00 | 0.00 | 61 | 1013.3 |
| 20260504213606 | 60 | 13 | 0.0 | 3.5 | 0.00 | 0.00 | 0.00 | 61 | 1013.4 |
| 20260504213509 | 61 | 13 | 0.0 | 3.5 | 0.00 | 0.00 | 0.00 | 61 | 1013.4 |
| 20260504213406 | 61 | 13 | 0.9 | 3.5 | 0.00 | 0.00 | 0.00 | 61 | 1013.3 |
| 20260504213304 | 61 | 13 | 0.0 | 3.5 | 0.00 | 0.00 | 0.00 | 61 | 1013.4 |
| 20260504213205 | 60 | 13 | 0.0 | 3.5 | 0.00 | 0.00 | 0.00 | 61 | 1013.4 |
| 20260504213106 | 61 | 322 | 0.0 | 1.7 | 0.00 | 0.00 | 0.00 | 61 | 1013.4 |
| 20260504212958 | 61 | 322 | 0.0 | 1.7 | 0.00 | 0.00 | 0.00 | 61 | 1013.4 |
| 20260504212856 | 61 | 322 | 0.0 | 2.6 | 0.00 | 0.00 | 0.00 | 61 | 1013.4 |
| 20260504212756 | 61 | 322 | 0.0 | 2.6 | 0.00 | 0.00 | 0.00 | 61 | 1013.4 |
| 20260504212655 | 61 | 322 | 0.0 | 2.6 | 0.00 | 0.00 | 0.00 | 61 | 1013.5 |
| 20260504212553 | 61 | 322 | 0.0 | 3.5 | 0.00 | 0.00 | 0.00 | 61 | 1013.5 |
| 20260504212453 | 61 | 322 | 0.9 | 5.2 | 0.00 | 0.00 | 0.00 | 60 | 1013.4 |
| 20260504212347 | 61 | 322 | 0.9 | 5.2 | 0.00 | 0.00 | 0.00 | 60 | 1013.4 |
| 20260504212240 | 61 | 322 | 0.0 | 5.2 | 0.00 | 0.00 | 0.00 | 60 | 1013.4 |
| 20260504212145 | 61 | 322 | 0.0 | 5.2 | 0.00 | 0.00 | 0.00 | 60 | 1013.5 |
| 20260504212102 | 61 | 322 | 0.0 | 5.2 | 0.00 | 0.00 | 0.00 | 60 | 1013.4 |
| 20260504212029 | 61 | 322 | 0.9 | 5.2 | 0.00 | 0.00 | 0.00 | 60 | 1013.4 |
| 20260504211843 | 61 | 320 | 0.9 | 5.2 | 0.00 | 0.00 | 0.00 | 60 | 1013.4 |
| 20260504211811 | 61 | 318 | 1.7 | 5.2 | 0.00 | 0.00 | 0.00 | 60 | 1013.5 |
| 20260504211632 | 61 | 319 | 0.9 | 5.2 | 0.00 | 0.00 | 0.00 | 60 | 1013.5 |
| 20260504211541 | 61 | 321 | 0.9 | 2.6 | 0.00 | 0.00 | 0.00 | 60 | 1013.4 |
| 20260504211440 | 61 | 329 | 0.0 | 2.6 | 0.00 | 0.00 | 0.00 | 60 | 1013.5 |
| 20260504211340 | 61 | 329 | 0.0 | 2.6 | 0.00 | 0.00 | 0.00 | 60 | 1013.4 |
| 20260504211309 | 61 | 329 | 0.9 | 2.6 | 0.00 | 0.00 | 0.00 | 60 | 1013.4 |
| 20260504211129 | 61 | 330 | 0.9 | 2.6 | 0.00 | 0.00 | 0.00 | 61 | 1013.4 |
| 20260504211027 | 61 | 330 | 0.9 | 2.6 | 0.00 | 0.00 | 0.00 | 60 | 1013.5 |
| 20260504210927 | 61 | 330 | 0.0 | 0.9 | 0.00 | 0.00 | 0.00 | 61 | 1013.4 |
| 20260504210826 | 61 | 330 | 0.0 | 0.9 | 0.00 | 0.00 | 0.00 | 61 | 1013.5 |
| 20260504210721 | 61 | 330 | 0.0 | 0.9 | 0.00 | 0.00 | 0.00 | 61 | 1013.5 |
| 20260504210624 | 61 | 330 | 0.0 | 1.7 | 0.00 | 0.00 | 0.00 | 61 | 1013.5 |
| 20260504210527 | 61 | 330 | 0.0 | 1.7 | 0.00 | 0.00 | 0.00 | 60 | 1013.5 |
| 20260504210420 | 61 | 330 | 0.0 | 1.7 | 0.00 | 0.00 | 0.00 | 60 | 1013.5 |
| 20260504210317 | 61 | 330 | 0.0 | 1.7 | 0.00 | 0.00 | 0.00 | 60 | 1013.5 |
| 20260504210217 | 61 | 330 | 0.0 | 1.7 | 0.00 | 0.00 | 0.00 | 60 | 1013.5 |
| 20260504210118 | 61 | 330 | 0.0 | 1.7 | 0.00 | 0.00 | 0.00 | 60 | 1013.5 |
| 20260504210014 | 61 | 330 | 0.0 | 2.6 | 0.00 | 0.00 | 0.00 | 60 | 1013.5 |
| 20260504205910 | 61 | 330 | 0.0 | 2.6 | 0.00 | 0.00 | 0.00 | 60 | 1013.4 |
| 20260504205811 | 61 | 330 | 0.0 | 2.6 | 0.00 | 0.00 | 0.00 | 60 | 1013.5 |
| 20260504205709 | 61 | 330 | 0.0 | 2.6 | 0.00 | 0.00 | 0.00 | 60 | 1013.5 |
| 20260504205607 | 61 | 330 | 0.0 | 2.6 | 0.00 | 0.00 | 0.00 | 60 | 1013.5 |
| 20260504205505 | 61 | 330 | 0.0 | 2.6 | 0.00 | 0.00 | 0.00 | 60 | 1013.5 |
| 20260504205404 | 61 | 330 | 0.0 | 2.6 | 0.00 | 0.00 | 0.00 | 60 | 1013.5 |
| 20260504205317 | 61 | 330 | 0.0 | 2.6 | 0.00 | 0.00 | 0.00 | 60 | 1013.5 |
| 20260504205248 | 61 | 330 | 0.0 | 2.6 | 0.00 | 0.00 | 0.00 | 60 | 1013.5 |
| 20260504205059 | 61 | 330 | 0.0 | 2.6 | 0.00 | 0.00 | 0.00 | 60 | 1013.5 |
| 20260504204958 | 62 | 330 | 0.0 | 1.7 | 0.00 | 0.00 | 0.00 | 60 | 1013.5 |
| 20260504204858 | 62 | 330 | 0.0 | 1.7 | 0.00 | 0.00 | 0.00 | 60 | 1013.5 |
| 20260504204751 | 62 | 328 | 0.0 | 1.7 | 0.00 | 0.00 | 0.00 | 60 | 1013.5 |
| 20260504204544 | 62 | 328 | 0.0 | 2.6 | 0.00 | 0.00 | 0.00 | 60 | 1013.5 |
| 20260504204443 | 62 | 328 | 0.0 | 2.6 | 0.00 | 0.00 | 0.00 | 60 | 1013.5 |
| 20260504204340 | 62 | 328 | 0.0 | 2.6 | 0.00 | 0.00 | 0.00 | 60 | 1013.5 |
| 20260504204238 | 62 | 329 | 0.0 | 2.6 | 0.00 | 0.00 | 0.00 | 59 | 1013.5 |
| 20260504204036 | 62 | 329 | 0.0 | 3.5 | 0.00 | 0.00 | 0.00 | 59 | 1013.4 |
| 20260504203936 | 62 | 329 | 0.0 | 5.2 | 0.00 | 0.00 | 0.00 | 59 | 1013.5 |
| 20260504203834 | 62 | 329 | 0.0 | 5.2 | 0.00 | 0.00 | 0.00 | 58 | 1013.5 |
| 20260504203734 | 62 | 329 | 0.9 | 5.2 | 0.00 | 0.00 | 0.00 | 58 | 1013.5 |
| 20260504203532 | 62 | 320 | 0.0 | 5.2 | 0.00 | 0.00 | 0.00 | 58 | 1013.5 |
| 20260504203431 | 62 | 320 | 0.0 | 5.2 | 0.00 | 0.00 | 0.00 | 58 | 1013.5 |
| 20260504203330 | 62 | 320 | 0.9 | 5.2 | 0.00 | 0.00 | 0.00 | 57 | 1013.4 |
| 20260504203222 | 62 | 320 | 1.7 | 5.2 | 0.00 | 0.00 | 0.00 | 57 | 1013.4 |
| 20260504203118 | 62 | 323 | 1.7 | 5.2 | 0.00 | 0.00 | 0.00 | 57 | 1013.5 |
| 20260504203015 | 62 | 326 | 2.6 | 5.2 | 0.00 | 0.00 | 0.00 | 57 | 1013.5 |
| 20260504202912 | 62 | 326 | 2.6 | 5.2 | 0.00 | 0.00 | 0.00 | 57 | 1013.4 |
| 20260504202827 | 62 | 318 | 1.7 | 4.3 | 0.00 | 0.00 | 0.00 | 57 | 1013.5 |
| 20260504202754 | 62 | 326 | 1.7 | 4.3 | 0.00 | 0.00 | 0.00 | 57 | 1013.5 |
| 20260504202610 | 62 | 312 | 1.7 | 4.3 | 0.00 | 0.00 | 0.00 | 57 | 1013.5 |
| 20260504202506 | 62 | 318 | 1.7 | 3.5 | 0.00 | 0.00 | 0.00 | 57 | 1013.4 |
| 20260504202405 | 62 | 304 | 0.9 | 3.5 | 0.00 | 0.00 | 0.00 | 57 | 1013.5 |
| 20260504202305 | 62 | 297 | 0.9 | 3.5 | 0.00 | 0.00 | 0.00 | 57 | 1013.5 |
| 20260504202204 | 62 | 294 | 0.9 | 3.5 | 0.00 | 0.00 | 0.00 | 57 | 1013.5 |
| 20260504202107 | 62 | 317 | 0.9 | 3.5 | 0.00 | 0.00 | 0.00 | 57 | 1013.5 |
| 20260504202002 | 62 | 317 | 1.7 | 3.5 | 0.00 | 0.00 | 0.00 | 57 | 1013.5 |
| 20260504201902 | 62 | 320 | 2.6 | 3.5 | 0.00 | 0.00 | 0.00 | 57 | 1013.5 |
| 20260504201801 | 62 | 320 | 1.7 | 3.5 | 0.00 | 0.00 | 0.00 | 57 | 1013.6 |
| 20260504201659 | 62 | 298 | 1.7 | 3.5 | 0.00 | 0.00 | 0.00 | 57 | 1013.5 |
| 20260504201557 | 62 | 315 | 1.7 | 3.5 | 0.00 | 0.00 | 0.00 | 57 | 1013.5 |
| 20260504201456 | 62 | 315 | 1.7 | 3.5 | 0.00 | 0.00 | 0.00 | 57 | 1013.6 |
| 20260504201355 | 62 | 314 | 1.7 | 3.5 | 0.00 | 0.00 | 0.00 | 57 | 1013.6 |
| 20260504201253 | 62 | 324 | 0.9 | 5.2 | 0.00 | 0.00 | 0.00 | 57 | 1013.5 |
| 20260504201153 | 62 | 324 | 1.7 | 5.2 | 0.00 | 0.00 | 0.00 | 57 | 1013.6 |
| 20260504201042 | 62 | 327 | 1.7 | 5.2 | 0.00 | 0.00 | 0.00 | 57 | 1013.6 |
| 20260504200943 | 62 | 327 | 1.7 | 5.2 | 0.00 | 0.00 | 0.00 | 57 | 1013.5 |
| 20260504200841 | 62 | 326 | 1.7 | 5.2 | 0.00 | 0.00 | 0.00 | 57 | 1013.5 |
| 20260504200741 | 62 | 316 | 0.9 | 5.2 | 0.00 | 0.00 | 0.00 | 58 | 1013.5 |
| 20260504200635 | 62 | 282 | 0.9 | 5.2 | 0.00 | 0.00 | 0.00 | 58 | 1013.5 |
| 20260504200533 | 62 | 316 | 1.7 | 5.2 | 0.00 | 0.00 | 0.00 | 58 | 1013.5 |
| 20260504200436 | 62 | 316 | 1.7 | 5.2 | 0.00 | 0.00 | 0.00 | 58 | 1013.6 |
| 20260504200336 | 62 | 318 | 0.9 | 7.8 | 0.00 | 0.00 | 0.00 | 58 | 1013.5 |
| 20260504200231 | 62 | 310 | 1.7 | 7.8 | 0.00 | 0.00 | 0.00 | 58 | 1013.5 |
| 20260504200136 | 62 | 319 | 2.6 | 7.8 | 0.00 | 0.00 | 0.00 | 58 | 1013.5 |
| 20260504200028 | 62 | 316 | 2.6 | 7.8 | 0.00 | 0.00 | 0.00 | 58 | 1013.5 |
| 20260504195927 | 62 | 323 | 2.6 | 7.8 | 0.00 | 0.00 | 0.00 | 58 | 1013.5 |
| 20260504195824 | 62 | 320 | 1.7 | 7.8 | 0.00 | 0.00 | 0.00 | 58 | 1013.6 |
| 20260504195717 | 62 | 307 | 1.7 | 7.8 | 0.00 | 0.00 | 0.00 | 58 | 1013.6 |
| 20260504195615 | 62 | 308 | 3.5 | 7.8 | 0.00 | 0.00 | 0.00 | 58 | 1013.5 |
| 20260504195516 | 62 | 326 | 3.5 | 7.8 | 0.00 | 0.00 | 0.00 | 59 | 1013.6 |
| 20260504195415 | 62 | 323 | 2.6 | 6.1 | 0.00 | 0.00 | 0.00 | 59 | 1013.6 |
| 20260504195313 | 62 | 322 | 2.6 | 6.1 | 0.00 | 0.00 | 0.00 | 59 | 1013.5 |
| 20260504195210 | 62 | 328 | 3.5 | 6.1 | 0.00 | 0.00 | 0.00 | 59 | 1013.6 |
| 20260504195110 | 62 | 326 | 4.3 | 6.1 | 0.00 | 0.00 | 0.00 | 59 | 1013.6 |
| 20260504195008 | 62 | 324 | 5.2 | 6.1 | 0.00 | 0.00 | 0.00 | 58 | 1013.6 |
| 20260504194908 | 62 | 320 | 5.2 | 6.1 | 0.00 | 0.00 | 0.00 | 58 | 1013.6 |
| 20260504194805 | 62 | 324 | 4.3 | 6.1 | 0.00 | 0.00 | 0.00 | 58 | 1013.6 |
| 20260504194705 | 62 | 324 | 4.3 | 6.1 | 0.00 | 0.00 | 0.00 | 58 | 1013.6 |
| 20260504194603 | 62 | 322 | 3.5 | 6.1 | 0.00 | 0.00 | 0.00 | 58 | 1013.6 |
| 20260504194502 | 62 | 326 | 2.6 | 5.2 | 0.00 | 0.00 | 0.00 | 58 | 1013.5 |
| 20260504194401 | 63 | 320 | 2.6 | 5.2 | 0.00 | 0.00 | 0.00 | 58 | 1013.5 |
| 20260504194259 | 63 | 322 | 2.6 | 5.2 | 0.00 | 0.00 | 0.00 | 58 | 1013.5 |
| 20260504194158 | 63 | 328 | 2.6 | 5.2 | 0.00 | 0.00 | 0.00 | 58 | 1013.6 |
| 20260504194058 | 63 | 328 | 1.7 | 5.2 | 0.00 | 0.00 | 0.00 | 58 | 1013.6 |
| 20260504193954 | 63 | 326 | 1.7 | 5.2 | 0.00 | 0.00 | 0.00 | 58 | 1013.5 |
| 20260504193854 | 63 | 329 | 1.7 | 5.2 | 0.00 | 0.00 | 0.00 | 58 | 1013.6 |
| 20260504193754 | 63 | 328 | 2.6 | 5.2 | 0.00 | 0.00 | 0.00 | 58 | 1013.6 |
| 20260504193654 | 63 | 330 | 1.7 | 5.2 | 0.00 | 0.00 | 0.00 | 58 | 1013.6 |
| 20260504193555 | 63 | 326 | 2.6 | 5.2 | 0.00 | 0.00 | 0.00 | 58 | 1013.6 |
| 20260504193443 | 63 | 325 | 2.6 | 5.2 | 0.00 | 0.00 | 0.00 | 57 | 1013.6 |
| 20260504193342 | 63 | 327 | 2.6 | 5.2 | 0.00 | 0.00 | 0.00 | 57 | 1013.6 |
| 20260504193242 | 63 | 328 | 1.7 | 5.2 | 0.00 | 0.00 | 0.00 | 57 | 1013.6 |
| 20260504193140 | 63 | 322 | 2.6 | 5.2 | 0.00 | 0.00 | 0.00 | 57 | 1013.6 |
| 20260504193039 | 63 | 326 | 2.6 | 5.2 | 0.00 | 0.00 | 0.00 | 57 | 1013.6 |
| 20260504192937 | 63 | 326 | 2.6 | 5.2 | 0.00 | 0.00 | 0.00 | 56 | 1013.6 |
| 20260504192836 | 63 | 327 | 2.6 | 5.2 | 0.00 | 0.00 | 0.00 | 56 | 1013.6 |
| 20260504192735 | 64 | 330 | 3.5 | 5.2 | 0.00 | 0.00 | 0.00 | 56 | 1013.6 |
| 20260504192633 | 64 | 328 | 2.6 | 5.2 | 0.00 | 0.00 | 0.00 | 56 | 1013.6 |
| 20260504192533 | 64 | 324 | 2.6 | 5.2 | 0.00 | 0.00 | 0.00 | 56 | 1013.6 |
| 20260504192431 | 64 | 326 | 2.6 | 5.2 | 0.00 | 0.00 | 0.00 | 55 | 1013.6 |
| 20260504192330 | 64 | 324 | 1.7 | 4.3 | 0.00 | 0.00 | 0.00 | 55 | 1013.6 |
| 20260504192230 | 64 | 291 | 1.7 | 4.3 | 0.00 | 0.00 | 0.00 | 55 | 1013.5 |
| 20260504192136 | 64 | 284 | 2.6 | 4.3 | 0.00 | 0.00 | 0.00 | 55 | 1013.7 |
| 20260504192028 | 64 | 298 | 1.7 | 4.3 | 0.00 | 0.00 | 0.00 | 55 | 1013.6 |
| 20260504191927 | 64 | 281 | 0.9 | 4.3 | 0.00 | 0.00 | 0.00 | 55 | 1013.6 |
| 20260504191827 | 64 | 298 | 0.9 | 4.3 | 0.00 | 0.00 | 0.00 | 55 | 1013.6 |
| 20260504191753 | 64 | 290 | 0.9 | 4.3 | 0.00 | 0.00 | 0.00 | 55 | 1013.6 |
| 20260504191721 | 64 | 281 | 0.9 | 4.3 | 0.00 | 0.00 | 0.00 | 55 | 1013.6 |
| 20260504191521 | 64 | 280 | 0.9 | 4.3 | 0.00 | 0.00 | 0.00 | 55 | 1013.6 |
| 20260504191419 | 64 | 280 | 0.9 | 4.3 | 0.00 | 0.00 | 0.00 | 54 | 1013.6 |
| 20260504191319 | 64 | 278 | 1.7 | 4.3 | 0.00 | 0.00 | 0.00 | 54 | 1013.6 |
| 20260504191215 | 64 | 271 | 1.7 | 4.3 | 0.00 | 0.00 | 0.00 | 54 | 1013.6 |
| 20260504191013 | 64 | 281 | 0.9 | 4.3 | 0.00 | 0.00 | 0.00 | 54 | 1013.6 |
| 20260504190913 | 64 | 288 | 1.7 | 4.3 | 0.00 | 0.00 | 0.00 | 54 | 1013.6 |
| 20260504190811 | 64 | 288 | 1.7 | 4.3 | 0.00 | 0.00 | 0.00 | 54 | 1013.5 |
| 20260504190710 | 64 | 266 | 1.7 | 4.3 | 0.00 | 0.00 | 0.00 | 54 | 1013.6 |
| 20260504190611 | 64 | 306 | 1.7 | 4.3 | 0.00 | 0.00 | 0.00 | 54 | 1013.6 |
| 20260504190507 | 64 | 306 | 1.7 | 6.1 | 0.00 | 0.00 | 0.00 | 54 | 1013.6 |
| 20260504190407 | 64 | 280 | 2.6 | 6.1 | 0.00 | 0.00 | 0.00 | 54 | 1013.6 |
| 20260504190305 | 64 | 285 | 2.6 | 6.1 | 0.00 | 0.00 | 0.00 | 54 | 1013.6 |
| 20260504190203 | 64 | 283 | 1.7 | 6.1 | 0.00 | 0.00 | 0.00 | 54 | 1013.5 |
| 20260504190004 | 64 | 289 | 2.6 | 6.1 | 0.00 | 0.00 | 0.00 | 54 | 1013.5 |
| 20260504185854 | 64 | 289 | 2.6 | 6.1 | 0.00 | 0.00 | 0.00 | 53 | 1013.5 |
| 20260504185757 | 64 | 283 | 2.6 | 6.1 | 0.00 | 0.00 | 0.00 | 53 | 1013.4 |
| 20260504185652 | 64 | 289 | 1.7 | 6.1 | 0.00 | 0.00 | 0.00 | 53 | 1013.5 |
| 20260504185550 | 64 | 309 | 1.7 | 6.1 | 0.00 | 0.00 | 0.00 | 53 | 1013.4 |
| 20260504185449 | 64 | 325 | 1.7 | 3.5 | 0.00 | 0.00 | 0.00 | 54 | 1013.5 |
| 20260504185349 | 64 | 326 | 1.7 | 3.5 | 0.00 | 0.00 | 0.00 | 54 | 1013.4 |
| 20260504185248 | 64 | 326 | 2.6 | 3.5 | 0.00 | 0.00 | 0.00 | 53 | 1013.4 |
| 20260504185147 | 64 | 326 | 2.6 | 3.5 | 0.00 | 0.00 | 0.00 | 53 | 1013.4 |
| 20260504185046 | 64 | 327 | 1.7 | 3.5 | 0.00 | 0.00 | 0.00 | 53 | 1013.4 |
| 20260504184945 | 64 | 327 | 1.7 | 3.5 | 0.00 | 0.00 | 0.00 | 53 | 1013.4 |
| 20260504184843 | 64 | 326 | 1.7 | 3.5 | 0.00 | 0.00 | 0.00 | 53 | 1013.4 |
| 20260504184742 | 64 | 326 | 0.9 | 3.5 | 0.00 | 0.00 | 0.00 | 53 | 1013.5 |
| 20260504184641 | 65 | 326 | 0.9 | 3.5 | 0.00 | 0.00 | 0.00 | 53 | 1013.5 |
| 20260504184539 | 65 | 326 | 0.9 | 3.5 | 0.00 | 0.00 | 0.00 | 53 | 1013.5 |
| 20260504184438 | 65 | 326 | 0.9 | 3.5 | 0.00 | 0.00 | 0.00 | 53 | 1013.5 |
| 20260504184336 | 65 | 328 | 1.7 | 3.5 | 0.00 | 0.00 | 0.00 | 53 | 1013.5 |
| 20260504184251 | 65 | 328 | 1.7 | 3.5 | 0.00 | 0.00 | 0.00 | 53 | 1013.5 |
| 20260504184219 | 65 | 327 | 1.7 | 3.5 | 0.00 | 0.00 | 0.00 | 53 | 1013.4 |
| 20260504184036 | 65 | 326 | 1.7 | 3.5 | 0.00 | 0.00 | 0.00 | 53 | 1013.4 |
| 20260504183932 | 65 | 325 | 1.7 | 3.5 | 0.00 | 0.00 | 0.00 | 53 | 1013.4 |
| 20260504183831 | 65 | 324 | 1.7 | 3.5 | 0.00 | 0.00 | 0.00 | 53 | 1013.5 |
| 20260504183729 | 65 | 324 | 0.9 | 3.5 | 0.00 | 0.00 | 0.00 | 53 | 1013.5 |
| 20260504183629 | 65 | 324 | 1.7 | 3.5 | 0.00 | 0.00 | 0.00 | 53 | 1013.4 |
| 20260504183525 | 65 | 324 | 1.7 | 3.5 | 0.00 | 0.00 | 0.00 | 53 | 1013.4 |
| 20260504183426 | 65 | 324 | 1.7 | 3.5 | 0.00 | 0.00 | 0.00 | 53 | 1013.4 |
| 20260504183324 | 65 | 322 | 0.9 | 3.5 | 0.00 | 0.00 | 0.00 | 53 | 1013.5 |
| 20260504183223 | 65 | 305 | 0.9 | 3.5 | 0.00 | 0.00 | 0.00 | 53 | 1013.5 |
| 20260504183122 | 65 | 304 | 0.9 | 3.5 | 0.00 | 0.00 | 0.00 | 53 | 1013.5 |
| 20260504183020 | 65 | 304 | 0.9 | 3.5 | 0.00 | 0.00 | 0.00 | 53 | 1013.5 |
| 20260504182914 | 65 | 304 | 1.7 | 3.5 | 0.00 | 0.00 | 0.00 | 53 | 1013.5 |
| 20260504182813 | 65 | 301 | 1.7 | 3.5 | 0.00 | 0.00 | 0.00 | 53 | 1013.5 |
| 20260504182712 | 65 | 277 | 2.6 | 3.5 | 0.00 | 0.00 | 0.00 | 53 | 1013.6 |
| 20260504182609 | 65 | 295 | 2.6 | 3.5 | 0.00 | 0.00 | 0.00 | 53 | 1013.5 |
| 20260504182507 | 65 | 297 | 2.6 | 4.3 | 0.00 | 0.00 | 0.00 | 53 | 1013.5 |
| 20260504182406 | 65 | 295 | 1.7 | 4.3 | 0.00 | 0.00 | 0.00 | 53 | 1013.6 |
| 20260504182306 | 65 | 288 | 2.6 | 4.3 | 0.00 | 0.00 | 0.00 | 53 | 1013.6 |
| 20260504182205 | 65 | 289 | 1.7 | 4.3 | 0.00 | 0.00 | 0.00 | 53 | 1013.6 |
| 20260504182106 | 65 | 290 | 1.7 | 4.3 | 0.00 | 0.00 | 0.00 | 53 | 1013.6 |
| 20260504182003 | 65 | 293 | 1.7 | 4.3 | 0.00 | 0.00 | 0.00 | 53 | 1013.6 |
| 20260504181859 | 65 | 293 | 0.9 | 4.3 | 0.00 | 0.00 | 0.00 | 53 | 1013.6 |
| 20260504181758 | 66 | 282 | 1.7 | 4.3 | 0.00 | 0.00 | 0.00 | 53 | 1013.6 |
| 20260504181658 | 66 | 277 | 2.6 | 4.3 | 0.00 | 0.00 | 0.00 | 53 | 1013.5 |
| 20260504181557 | 66 | 277 | 1.7 | 4.3 | 0.00 | 0.00 | 0.00 | 53 | 1013.6 |
| 20260504181455 | 66 | 280 | 2.6 | 6.1 | 0.00 | 0.00 | 0.00 | 53 | 1013.6 |
| 20260504181355 | 66 | 278 | 2.6 | 6.1 | 0.00 | 0.00 | 0.00 | 53 | 1013.6 |
| 20260504181252 | 66 | 278 | 2.6 | 6.1 | 0.00 | 0.00 | 0.00 | 53 | 1013.6 |
| 20260504181151 | 66 | 289 | 2.6 | 6.1 | 0.00 | 0.00 | 0.00 | 53 | 1013.6 |
| 20260504180950 | 66 | 285 | 2.6 | 6.1 | 0.00 | 0.00 | 0.00 | 53 | 1013.6 |
| 20260504180849 | 66 | 280 | 2.6 | 6.1 | 0.00 | 0.00 | 0.00 | 52 | 1013.6 |
| 20260504180747 | 66 | 291 | 3.5 | 6.1 | 0.00 | 0.00 | 0.00 | 52 | 1013.6 |
| 20260504180644 | 66 | 288 | 3.5 | 6.1 | 0.00 | 0.00 | 0.00 | 52 | 1013.6 |
| 20260504180443 | 66 | 299 | 3.5 | 4.3 | 0.00 | 0.00 | 0.00 | 52 | 1013.6 |
| 20260504180338 | 66 | 282 | 3.5 | 4.3 | 0.00 | 0.00 | 0.00 | 52 | 1013.5 |
| 20260504180240 | 66 | 278 | 1.7 | 4.3 | 0.00 | 0.00 | 0.00 | 52 | 1013.5 |
| 20260504180146 | 66 | 280 | 1.7 | 5.2 | 0.00 | 0.00 | 0.00 | 52 | 1013.4 |
| 20260504180037 | 66 | 293 | 1.7 | 5.2 | 0.00 | 0.00 | 0.00 | 52 | 1013.4 |
| 20260504175938 | 66 | 293 | 1.7 | 5.2 | 0.00 | 0.00 | 0.00 | 52 | 1013.5 |
| 20260504175836 | 66 | 312 | 1.7 | 6.1 | 0.00 | 0.00 | 0.00 | 51 | 1013.5 |
| 20260504175735 | 66 | 287 | 1.7 | 6.1 | 0.00 | 0.00 | 0.00 | 51 | 1013.4 |
| 20260504175703 | 66 | 308 | 1.7 | 6.1 | 0.00 | 0.00 | 0.00 | 52 | 1013.4 |
| 20260504175526 | 66 | 318 | 1.7 | 6.1 | 0.00 | 0.00 | 0.00 | 51 | 1013.4 |
| 20260504175420 | 66 | 316 | 1.7 | 6.1 | 0.00 | 0.00 | 0.00 | 52 | 1013.4 |
| 20260504175319 | 66 | 321 | 1.7 | 6.1 | 0.00 | 0.00 | 0.00 | 52 | 1013.4 |
| 20260504175218 | 66 | 321 | 1.7 | 6.1 | 0.00 | 0.00 | 0.00 | 52 | 1013.3 |
| 20260504175117 | 66 | 320 | 2.6 | 6.1 | 0.00 | 0.00 | 0.00 | 52 | 1013.3 |
| 20260504175014 | 66 | 324 | 3.5 | 6.1 | 0.00 | 0.00 | 0.00 | 52 | 1013.3 |
| 20260504174913 | 66 | 324 | 3.5 | 7.0 | 0.00 | 0.00 | 0.00 | 52 | 1013.3 |
| 20260504174812 | 66 | 324 | 2.6 | 7.0 | 0.00 | 0.00 | 0.00 | 52 | 1013.3 |
| 20260504174710 | 66 | 325 | 2.6 | 7.0 | 0.00 | 0.00 | 0.00 | 52 | 1013.3 |
| 20260504174609 | 66 | 330 | 1.7 | 7.0 | 0.00 | 0.00 | 0.00 | 52 | 1013.2 |
| 20260504174507 | 66 | 329 | 2.6 | 7.0 | 0.00 | 0.00 | 0.00 | 51 | 1013.2 |
| 20260504174406 | 66 | 328 | 2.6 | 7.0 | 0.00 | 0.00 | 0.00 | 51 | 1013.3 |
| 20260504174306 | 66 | 330 | 1.7 | 7.0 | 0.00 | 0.00 | 0.00 | 51 | 1013.3 |